GFSFLT1_700_rhum_000.txt.gz
RH
25 11 6 7 7 7 7 7 7 7 7 7 8 8 9 10 11 12 11 11 12 12 12 13 13 13 14 15 15 14 14 15 15
28 24 19 12 10 8 8 8 9 9 10 10 12 13 14 14 15 14 14 14 13 14 14 14 14 14 14 15 15 16 16 15 15
27 25 22 20 18 16 15 15 15 14 15 16 16 17 18 19 19 20 19 19 18 18 18 20 18 17 17 16 16 16 16 17 17
20 22 21 22 21 22 23 25 26 26 26 26 26 27 27 27 31 35 38 37 38 32 27 24 22 22 22 22 21 20 18 17 17
14 16 18 18 20 21 22 25 27 29 29 29 30 31 31 32 35 38 41 41 41 42 44 41 41 39 32 28 24 22 20 19 19
20 21 23 23 24 24 26 28 29 30 30 29 28 28 28 28 29 31 34 36 37 37 38 41 43 41 40 39 38 37 36 34 30
25 27 27 26 27 28 31 31 28 26 25 25 27 27 27 26 26 26 28 31 32 34 36 39 41 43 42 42 41 41 40 40 41
26 26 26 28 29 31 29 27 27 26 22 20 19 18 19 20 21 23 25 25 26 28 30 39 58 60 58 48 39 39 40 41 44
26 27 28 29 29 28 26 22 19 19 21 21 22 24 28 30 30 29 28 28 29 29 29 29 29 42 64 77 68 74 71 64 48
28 29 30 29 30 27 23 23 25 26 26 28 30 32 32 30 22 16 13 12 11 11 10 12 12 17 61 64 74 74 84 83 83
30 31 31 30 29 27 28 29 29 31 33 32 28 20 12 6 4 4 5 5 5 6 6 6 6 8 25 65 79 84 80 82 82
32 31 31 30 31 31 30 34 36 32 21 7 4 5 5 5 5 5 5 5 5 6 6 8 8 10 12 34 72 76 85 76 81
31 31 32 32 32 33 37 33 20 6 3 4 6 6 5 5 5 5 5 5 6 7 7 7 6 5 6 9 14 16 22 67 67
31 33 33 34 39 37 26 12 2 3 6 6 6 6 5 5 5 5 5 6 6 5 5 5 4 4 5 5 4 3 3 4 4
34 37 42 41 34 22 8 2 7 8 8 7 6 5 5 5 6 7 7 6 6 5 5 4 4 4 4 4 3 3 3 3 3
44 45 39 32 19 4 5 9 9 8 7 6 6 5 7 7 8 8 7 7 6 6 6 6 6 6 6 6 6 6 5 5 5
46 40 29 11 4 8 10 10 8 7 7 8 8 8 9 8 9 9 8 8 7 7 7 7 7 7 7 8 8 8 8 7 7
42 28 12 6 8 10 10 10 10 8 7 7 8 8 10 11 10 9 9 9 9 8 8 8 8 9 9 10 10 10 10 10 10
28 15 8 7 8 10 10 10 10 9 8 8 8 9 9 9 10 10 10 10 10 9 9 9 10 10 10 12 13 14 14 12 12
18 10 7 7 8 10 10 11 10 10 9 9 10 10 10 11 11 10 10 10 10 10 10 10 9 10 11 13 15 15 14 12 10

GFSFLT1_700_rhum_003.txt.gz
RH
29 26 15 9 8 7 7 7 7 7 7 7 8 9 10 12 13 14 14 14 13 13 13 13 13 13 14 14 15 15 15 14 14
29 26 24 20 16 14 12 11 11 11 12 12 13 14 15 16 16 17 17 17 17 17 16 16 16 16 15 15 15 15 15 16 16
20 23 23 21 20 19 19 19 19 20 20 20 22 24 25 26 26 27 28 26 24 23 23 22 21 22 22 20 18 18 17 16 16
12 12 14 16 16 19 20 22 23 25 26 26 27 28 30 32 34 34 36 37 36 34 33 34 34 32 26 23 22 22 21 20 20
19 19 20 22 23 23 25 26 28 30 31 28 28 27 27 28 28 30 32 33 34 35 36 37 36 38 38 36 34 32 30 27 22
25 26 28 30 30 30 31 32 29 28 26 25 25 26 27 26 26 27 27 27 26 28 32 36 40 38 39 40 38 38 38 39 38
25 26 28 29 30 29 29 28 28 28 29 28 23 22 21 21 22 24 24 24 23 23 25 33 56 58 56 65 70 68 49 44 44
27 27 27 28 29 30 29 29 28 26 25 24 25 25 26 27 28 29 29 29 29 29 30 31 32 32 35 49 66 74 71 68 68
28 28 29 30 31 31 29 26 26 28 27 28 31 30 30 29 28 24 19 14 12 11 12 14 17 21 23 26 49 62 75 80 84
33 30 32 31 32 30 29 30 29 29 33 33 28 18 8 5 5 5 5 5 6 6 6 6 6 6 9 13 38 73 86 83 78
36 32 32 32 32 32 32 29 34 35 26 14 6 4 5 6 6 6 6 6 5 5 6 6 6 6 7 8 10 25 59 65 80
36 34 33 33 34 31 33 37 31 16 4 2 5 6 6 6 6 6 5 5 5 5 6 6 6 6 6 8 11 16 27 50 67
36 34 33 33 31 38 39 29 17 4 4 8 7 6 6 6 6 5 5 5 6 6 6 6 6 5 5 5 5 6 8 16 27
34 32 31 34 41 39 30 18 3 6 8 8 7 7 6 6 6 6 7 8 8 8 7 7 6 6 5 5 4 4 4 4 4
32 32 40 44 40 30 12 4 8 9 10 9 8 7 7 6 7 8 9 9 8 8 8 7 7 6 6 6 6 6 6 6 5
36 47 47 42 29 9 6 9 10 10 11 10 8 8 7 8 8 9 9 9 9 9 9 9 8 8 8 8 7 7 7 6 6
49 50 43 26 12 8 9 10 10 11 13 14 14 13 11 10 10 10 10 9 9 9 9 10 10 10 10 9 9 8 8 8 8
52 41 26 14 9 8 9 11 13 14 14 14 14 13 13 14 13 13 13 12 11 10 10 10 10 10 10 10 10 9 9 9 9
37 28 20 12 9 10 13 16 17 18 17 15 12 12 12 13 16 16 14 12 12 10 9 9 10 11 11 11 10 10 10 10 11
33 27 19 13 12 13 16 19 19 19 18 16 14 13 13 14 14 15 13 11 8 8 8 7 8 10 10 10 10 10 10 10 11

GFSFLT1_700_rhum_006.txt.gz
RH
29 27 20 14 10 9 8 8 8 8 8 9 9 9 10 10 11 13 14 15 14 14 13 12 12 12 12 13 13 14 14 15 14
25 26 24 22 20 18 17 16 14 14 13 14 14 15 16 17 18 19 18 18 18 17 17 17 16 15 14 14 14 14 15 15 15
14 21 21 21 20 19 20 21 21 22 24 25 26 26 25 24 23 24 24 24 26 26 24 23 22 20 19 18 18 18 18 18 17
16 16 16 17 18 20 21 22 22 23 24 26 27 27 27 27 27 27 28 26 26 26 28 29 30 30 29 28 29 27 24 20 18
26 27 28 30 30 30 32 32 32 30 30 29 27 26 27 27 27 27 27 25 24 23 24 26 29 32 34 33 32 33 33 34 33
27 29 31 31 31 32 32 32 28 28 27 26 25 24 24 22 22 22 23 22 23 22 23 22 38 81 78 75 63 55 54 40 37
27 30 30 30 30 31 31 30 29 25 24 23 23 24 24 24 24 26 28 29 30 30 29 30 29 30 34 42 53 69 72 69 70
25 29 30 31 32 32 32 30 30 28 29 28 28 28 30 30 30 29 29 30 30 28 27 29 30 30 32 34 37 51 56 72 77
35 33 32 32 33 33 32 30 30 30 26 28 32 31 26 17 11 8 7 7 6 6 6 6 7 9 12 14 18 28 44 62 66
42 39 35 34 34 32 32 32 29 27 32 29 17 7 3 3 5 6 6 6 6 6 6 6 6 6 6 6 7 8 11 23 57
44 42 37 34 33 34 32 28 31 33 23 11 3 3 6 7 7 6 6 6 6 6 6 6 6 6 6 7 7 8 9 13 28
42 42 38 35 34 32 29 36 33 24 9 2 8 8 8 8 7 7 6 6 6 5 6 6 6 6 6 6 6 6 7 9 12
43 40 37 34 31 36 39 35 26 8 4 9 9 9 9 8 7 7 6 6 7 8 8 8 8 8 7 7 6 6 5 5 5
44 39 34 32 42 40 37 26 6 5 9 10 10 10 9 8 8 8 8 8 9 9 9 9 9 8 8 8 7 7 7 7 6
37 33 36 44 43 38 28 8 8 9 10 11 12 12 12 10 10 9 9 9 9 10 9 9 9 9 10 10 9 9 9 8 8
33 44 46 45 38 24 9 8 9 10 12 14 14 14 14 14 13 11 11 11 11 10 10 10 10 10 10 10 10 10 10 9 8
47 47 42 33 20 13 10 9 11 14 18 19 19 18 16 15 14 14 13 13 13 13 13 12 12 12 11 10 10 9 9 9 9
44 37 29 24 19 13 10 12 16 19 21 21 21 19 18 18 17 17 16 16 16 14 13 12 11 10 10 9 8 8 8 8 9
38 33 31 26 19 15 14 16 20 22 23 23 22 22 20 19 18 18 19 18 15 13 11 10 9 8 7 7 7 7 7 8 9
49 53 50 39 28 21 18 19 22 24 25 25 23 21 20 18 18 20 17 14 12 9 8 7 6 6 6 6 6 6 7 8 10

GFSFLT1_700_rhum_009.txt.gz
RH
29 26 21 14 10 9 9 8 8 8 8 8 9 9 9 10 9 10 12 14 14 15 15 14 14 13 13 12 12 12 13 14 14
23 26 23 22 21 20 20 19 18 18 17 17 17 17 18 18 19 19 20 20 20 20 20 18 17 16 16 16 15 14 14 14 14
12 15 20 20 20 19 19 20 21 20 21 22 23 22 24 23 24 22 22 22 23 25 25 25 24 24 23 22 20 18 18 17 17
21 21 22 23 24 26 27 28 29 28 30 31 30 28 24 25 25 25 24 24 24 26 26 25 27 31 30 29 29 30 28 26 23
26 28 29 30 31 32 32 34 35 32 30 28 27 27 25 24 25 23 21 20 21 21 21 21 25 69 92 54 46 39 31 32 35
27 29 29 30 31 32 33 32 30 29 29 26 23 22 21 20 21 21 21 22 23 24 25 26 26 26 32 67 78 80 82 69 65
33 30 32 32 31 32 32 32 31 29 26 26 27 27 27 26 27 27 27 28 30 31 31 30 29 27 30 31 33 40 50 64 77
38 36 32 32 31 32 32 32 32 31 31 31 30 29 32 32 31 28 21 17 18 20 18 15 12 13 18 18 22 28 45 55 56
40 39 36 34 32 32 32 33 33 34 29 32 33 28 18 8 4 3 4 5 6 6 6 6 6 7 7 7 8 11 14 19 33
41 40 39 39 34 33 33 34 33 30 33 31 22 11 2 4 7 7 7 7 6 6 6 6 6 6 6 6 6 7 7 8 10
44 41 42 40 37 35 34 31 34 37 31 22 8 3 8 8 8 8 8 7 6 6 6 6 6 6 6 6 7 7 7 7 8
45 43 44 41 37 34 31 39 37 31 16 4 5 9 9 10 10 9 9 8 8 8 8 8 8 9 9 8 8 8 7 7 6
44 43 42 39 34 33 42 39 32 13 5 8 9 10 11 12 12 11 10 10 10 9 9 9 9 10 10 9 9 9 8 8 7
41 45 41 34 35 42 40 32 16 8 9 10 11 12 13 14 15 14 14 12 11 10 10 10 10 10 10 10 10 10 10 10 10
43 43 34 41 42 39 28 15 9 9 10 11 13 16 17 17 17 16 15 14 13 12 12 12 11 12 11 11 11 10 10 11 10
41 34 44 43 34 25 19 13 10 10 12 16 19 20 20 19 18 17 17 16 15 14 14 14 14 14 14 13 12 12 11 10 10
34 44 41 33 27 23 19 16 12 12 16 19 20 20 21 21 21 20 20 19 17 16 16 16 15 14 13 13 12 10 9 8 8
44 40 36 36 38 37 31 22 16 17 20 22 23 23 22 22 21 22 21 20 19 18 16 15 14 12 11 9 8 7 7 6 6
41 44 53 56 55 53 44 30 19 17 21 25 26 27 26 24 21 20 20 20 18 16 14 12 10 8 7 7 8 8 8 7 7
48 52 52 53 53 52 50 43 23 14 16 23 27 27 26 25 25 22 20 18 15 12 10 8 8 8 9 9 10 9 9 8 8

GFSFLT1_700_rhum_012.txt.gz
RH
28 24 19 13 11 10 10 9 9 8 8 8 8 8 8 9 10 10 12 13 14 15 15 15 15 15 14 14 13 13 13 13 14
23 25 24 22 21 20 20 20 19 19 19 18 18 19 20 21 22 22 22 22 21 19 21 21 20 18 18 18 18 17 16 15 15
12 14 16 18 18 18 17 17 19 21 21 22 21 21 22 21 21 22 23 24 26 25 26 27 27 26 27 27 28 26 23 21 20
23 24 25 26 26 27 28 29 31 30 31 30 30 28 27 26 26 26 25 25 25 25 24 25 26 54 67 54 34 32 34 34 34
26 28 29 30 29 29 30 31 32 32 29 28 28 28 26 24 23 20 20 20 19 19 20 21 21 21 23 50 74 73 77 74 67
32 28 29 30 29 30 31 31 31 31 30 27 26 24 24 24 25 24 25 25 26 26 26 26 27 27 27 26 31 55 76 83 80
37 35 31 31 32 32 32 32 33 33 31 30 30 30 29 27 28 26 29 29 28 26 25 24 26 27 27 25 27 29 32 45 54
39 38 37 36 35 34 33 33 33 34 34 33 31 28 30 30 29 20 14 7 4 5 5 6 7 7 6 6 8 12 16 19 26
40 40 40 39 39 35 34 33 34 34 33 31 34 32 24 14 4 2 5 6 7 7 7 6 6 6 6 6 6 6 7 8 9
42 42 41 41 41 40 35 34 34 31 32 36 31 23 8 4 8 8 8 8 7 7 7 7 6 6 6 6 6 6 6 6 6
46 44 44 42 42 41 37 34 31 36 37 32 18 5 6 9 9 9 9 9 9 10 10 10 9 9 9 9 9 9 9 9 8
48 47 45 42 43 40 34 31 39 38 32 17 5 8 9 10 11 11 12 13 13 13 13 12 12 11 11 10 10 11 11 10 10
48 49 45 44 44 36 33 40 36 28 13 8 9 10 11 12 14 15 16 16 15 15 14 14 13 12 11 11 11 11 11 11 10
48 45 41 45 37 36 40 33 22 12 9 9 10 12 14 16 18 18 17 17 16 16 15 15 14 14 13 13 13 12 12 12 11
50 41 47 38 39 39 28 20 16 12 10 11 14 17 19 20 20 20 19 19 20 19 18 17 17 16 15 15 15 15 15 14 13
42 46 40 41 38 28 25 23 18 15 13 15 17 20 22 22 22 22 22 21 21 21 20 19 19 18 18 17 17 16 14 14 13
43 43 41 39 33 40 48 46 40 28 19 17 20 22 24 24 24 24 23 23 22 22 21 20 19 18 17 16 14 13 11 9 8
45 40 41 40 49 50 49 48 48 43 26 16 16 20 24 26 25 26 24 24 23 21 19 17 16 15 13 12 10 8 7 8 8
40 45 44 49 48 50 52 50 47 46 34 13 10 15 21 23 23 22 22 22 21 18 16 14 12 10 8 8 9 10 11 11 11
46 46 50 50 53 55 56 56 55 50 48 19 10 12 18 23 25 24 23 21 18 17 14 11 9 9 10 12 13 12 10 7 6

GFSFLT1_700_rhum_015.txt.gz
RH
27 24 19 15 12 10 10 9 9 9 9 9 9 9 9 9 9 9 10 11 13 15 16 18 18 17 17 16 15 14 14 13 13
18 25 24 23 22 21 21 21 20 20 20 20 20 20 20 20 20 20 20 20 20 19 18 19 19 19 20 21 20 19 18 18 17
16 13 13 14 14 16 16 18 20 20 21 21 22 22 23 23 24 25 23 24 24 24 23 23 23 23 24 27 28 28 29 27 26
23 25 25 26 27 26 27 27 28 29 29 29 28 27 27 26 25 23 22 22 21 21 20 21 21 21 25 63 84 79 74 42 36
30 25 26 28 28 28 28 29 29 29 29 28 28 26 24 23 21 20 21 21 22 22 21 21 21 22 21 21 26 60 79 84 81
32 32 30 26 29 29 30 31 31 30 30 30 28 27 28 28 28 26 26 26 26 26 26 25 25 26 28 27 27 27 28 52 80
35 35 35 34 31 32 32 32 32 32 31 31 31 31 29 27 26 23 29 28 25 18 8 5 5 6 7 9 12 14 17 22 28
38 37 38 37 36 35 34 33 33 33 32 32 31 27 27 30 28 22 13 5 2 3 6 6 7 7 7 6 6 6 6 7 8
42 41 40 40 39 38 38 35 34 33 32 29 28 31 32 27 18 7 4 7 7 7 7 7 7 7 7 6 6 6 6 6 6
46 44 43 42 42 40 40 37 34 33 29 29 34 32 25 11 5 7 8 9 9 9 9 9 9 10 10 10 9 9 8 8 8
49 48 45 45 44 41 40 37 34 29 33 34 32 24 8 7 8 9 10 11 12 13 14 14 14 14 14 13 12 12 11 11 11
54 54 46 47 45 40 39 36 30 36 34 29 22 8 8 10 10 12 14 15 16 16 16 15 14 14 14 14 13 13 13 13 12
56 54 47 46 42 39 37 31 36 32 22 14 9 9 10 12 13 16 18 18 17 16 17 17 17 17 16 16 15 15 14 15 14
53 53 46 46 40 41 33 37 29 19 14 11 10 11 13 16 19 19 19 19 19 19 20 20 19 19 18 17 17 16 16 16 16
48 48 46 42 41 36 38 28 23 23 19 15 13 13 15 17 20 20 21 21 21 22 21 21 20 19 19 18 18 18 18 18 18
45 45 48 43 39 39 31 36 40 41 41 37 25 16 16 19 22 24 24 24 24 24 23 22 21 20 19 18 18 18 17 16 15
46 52 48 44 40 35 43 40 39 38 37 38 34 20 15 16 21 24 25 25 25 23 23 22 21 20 19 17 16 15 14 12 10
53 57 53 42 40 45 44 48 49 48 47 44 41 27 13 10 12 16 20 22 24 24 24 22 19 17 16 14 12 10 9 8 9
91 63 46 45 45 46 50 54 54 54 54 52 51 45 33 21 17 16 19 23 25 24 21 19 16 14 11 9 9 11 12 13 13
94 66 49 46 49 50 55 57 57 57 56 56 56 51 43 25 16 18 24 25 23 21 19 17 14 10 10 12 14 14 13 10 8

GFSFLT1_700_rhum_018.txt.gz
RH
21 27 24 19 14 12 11 11 11 10 11 11 11 11 11 12 13 14 16 18 19 20 21 21 20 20 19 19 18 17 16 16 14
12 20 24 24 22 21 20 19 18 16 17 16 17 16 17 17 16 17 16 17 18 18 20 20 22 21 21 22 24 24 23 22 20
21 20 18 19 21 22 23 24 24 24 24 25 24 24 24 23 24 22 21 22 21 21 21 22 21 21 22 23 49 76 67 54 30
27 24 24 25 26 26 25 26 26 26 26 26 25 25 24 24 23 21 20 19 18 18 18 19 18 18 18 19 22 63 83 84 82
29 29 29 26 25 27 27 27 28 28 28 28 27 27 26 25 24 24 24 24 24 24 24 23 23 24 23 24 25 23 22 46 78
34 32 32 32 31 29 28 28 28 28 29 30 30 29 29 28 26 25 24 23 22 24 23 22 18 11 8 14 22 25 25 25 25
38 36 34 35 35 34 32 31 31 30 29 29 30 29 28 25 22 23 26 24 18 9 2 2 3 5 5 5 6 6 6 6 8
43 42 39 37 37 36 34 33 32 31 31 31 30 26 25 26 26 26 22 13 4 5 7 7 8 8 8 7 7 6 6 6 6
46 45 44 41 38 38 37 34 33 32 32 30 26 26 30 30 26 20 8 6 8 8 9 9 9 9 10 9 9 9 8 8 7
48 47 47 47 44 39 39 37 35 33 32 27 28 31 30 26 19 8 7 8 10 10 11 12 14 14 15 14 14 14 13 13 12
47 49 52 52 48 42 40 38 35 33 29 29 31 27 24 15 10 8 9 11 12 14 15 16 16 15 14 14 14 14 14 14 14
51 52 53 54 50 44 42 38 35 33 30 31 23 17 12 10 10 10 12 14 16 17 17 16 16 17 17 17 17 17 16 16 15
50 51 54 55 51 45 42 37 34 31 31 22 16 12 10 10 12 14 17 19 19 18 18 18 19 20 19 19 18 17 16 16 15
53 52 52 54 51 45 41 36 33 33 26 26 24 17 12 12 13 15 18 20 20 20 20 21 21 21 21 20 19 18 16 16 16
56 52 50 50 49 46 41 35 33 31 34 32 30 33 31 23 15 14 16 19 23 24 24 24 24 23 22 20 19 18 18 17 18
57 49 43 48 50 47 39 36 34 36 34 35 34 33 32 27 19 14 15 17 20 23 24 24 23 22 20 19 18 18 17 17 16
60 49 45 52 52 47 40 37 39 40 44 44 45 46 43 42 34 24 17 12 12 14 16 20 22 22 21 20 19 18 16 15 12
60 49 47 59 56 44 41 42 42 46 49 50 51 51 51 51 46 42 30 22 19 20 23 24 23 22 20 18 17 14 12 10 10
58 55 50 67 58 45 45 46 49 52 52 52 53 52 54 56 54 47 32 21 20 24 24 23 21 19 17 14 11 10 11 13 15
59 65 74 89 52 48 49 50 55 56 56 55 54 54 55 58 58 53 34 22 24 25 23 21 19 16 12 11 13 15 15 13 11

GFSFLT1_700_rhum_021.txt.gz
RH
12 24 26 23 20 17 16 16 15 16 16 17 18 18 18 18 18 19 19 19 19 19 19 18 17 16 16 18 17 18 19 18 17
16 13 16 19 19 18 16 15 16 16 16 17 18 19 20 21 17 18 20 19 20 20 21 21 21 20 21 22 24 31 33 32 27
24 22 21 22 22 22 22 22 22 23 24 24 23 22 23 23 22 22 21 20 20 19 19 18 18 18 19 20 20 29 74 82 84
26 26 26 25 24 23 24 24 25 25 25 25 24 25 24 22 22 22 21 21 22 22 23 23 23 23 22 22 22 20 31 65 86
35 32 30 28 28 28 26 25 26 26 26 26 27 27 26 25 26 26 25 25 24 22 21 22 22 21 23 22 22 24 24 24 26
40 38 35 33 32 31 30 29 28 28 28 27 28 29 28 26 25 24 23 23 22 22 20 14 8 4 2 3 4 5 10 17 22
44 44 42 39 36 34 34 33 31 30 30 29 28 29 27 24 23 25 27 26 22 15 6 3 5 6 7 7 7 7 7 7 7
46 46 46 45 44 42 38 35 34 33 31 30 29 27 24 25 29 27 25 20 11 6 7 7 8 8 8 8 8 8 8 7 7
45 46 47 47 47 47 44 39 36 33 31 30 30 26 26 29 27 24 17 10 7 8 8 9 10 11 12 13 14 14 14 13 13
46 47 47 48 51 49 48 43 37 34 32 30 27 29 29 25 22 16 9 7 8 10 11 12 13 15 15 15 14 14 14 14 14
50 50 48 48 50 51 50 45 38 36 33 30 29 29 23 17 13 11 9 10 11 12 14 16 16 16 15 15 16 17 17 17 16
56 52 49 50 52 53 52 46 40 38 33 30 30 24 20 14 11 10 12 13 14 17 18 18 17 17 18 19 19 19 19 18 17
50 47 49 51 52 54 52 47 42 38 33 31 29 28 26 20 13 12 13 15 18 20 20 20 20 20 20 21 21 21 20 19 18
52 52 54 54 52 51 52 49 43 38 33 31 33 30 27 28 29 24 17 14 14 17 20 23 23 23 24 24 23 22 21 19 18
55 56 58 57 51 49 54 51 45 37 33 35 33 34 33 33 31 28 23 17 14 15 17 20 21 22 22 22 21 20 19 18 17
47 56 59 59 51 47 54 52 45 37 37 38 40 42 43 44 44 45 42 38 34 27 18 14 14 15 15 17 18 19 19 18 18
48 60 60 61 53 51 56 54 43 40 41 44 46 47 47 47 47 48 49 48 45 38 27 20 19 20 22 22 21 20 19 18 17
57 66 70 62 51 53 61 54 42 44 46 49 50 50 49 49 50 50 51 51 49 42 28 23 23 23 23 21 20 19 17 15 13
63 74 74 60 56 63 68 51 45 46 49 52 53 53 52 52 53 53 54 54 51 41 26 24 24 23 22 20 18 15 12 12 13
71 80 71 64 83 77 71 50 48 48 51 54 55 54 53 54 56 55 57 57 48 34 25 25 24 22 19 15 12 13 15 16 16

GFSFLT1_700_rhum_024.txt.gz
RH
11 16 25 26 25 24 22 21 21 20 20 20 19 19 18 18 17 17 17 17 16 18 17 16 16 18 20 21 21 21 21 20 19
20 17 15 15 16 16 17 17 17 18 18 18 19 19 18 20 21 21 21 21 21 21 22 21 20 20 21 22 33 32 54 63 65
23 24 23 23 22 22 22 23 23 23 22 22 22 22 22 22 22 22 21 20 20 20 20 20 21 21 21 21 20 20 30 71 80
34 29 26 25 25 25 25 25 25 25 25 24 24 23 23 24 24 24 23 24 24 25 25 24 24 23 24 24 24 24 24 34 66
39 37 34 32 31 30 28 28 28 28 27 27 26 25 25 26 25 26 26 24 22 21 23 24 22 23 22 20 17 17 21 24 26
44 44 42 41 38 36 35 32 30 30 30 30 28 28 28 27 26 24 24 24 23 24 23 18 12 6 3 3 4 4 4 5 10
46 46 46 46 45 44 44 41 36 33 31 31 30 30 28 25 26 28 29 27 24 21 12 6 5 6 7 7 7 7 7 7 7
44 46 47 47 46 46 46 45 43 38 34 31 29 29 26 26 30 28 27 24 18 10 7 8 8 8 8 9 9 9 9 8 8
46 45 47 48 48 49 49 48 46 41 36 34 30 29 28 30 26 23 20 14 10 8 8 9 10 10 11 12 14 14 14 14 14
48 48 48 50 48 48 50 50 49 44 39 35 31 29 29 26 19 15 13 10 9 9 10 11 12 14 15 16 16 15 15 15 14
51 51 52 53 51 50 50 51 51 48 41 37 32 30 28 23 17 12 11 11 11 12 13 14 16 17 17 16 16 17 18 18 18
52 51 54 53 51 50 51 52 53 50 43 39 33 30 28 29 25 18 12 12 14 16 18 20 20 19 18 18 18 19 20 20 20
50 52 52 49 50 52 53 53 53 51 46 40 34 31 33 30 29 29 26 20 15 15 18 20 21 21 21 21 21 21 22 22 22
52 56 54 53 55 57 56 53 53 53 49 41 34 34 33 33 33 33 31 28 23 17 15 16 18 19 21 22 23 23 22 22 21
53 55 52 56 59 60 58 52 54 58 51 41 36 36 39 41 43 43 43 44 43 42 38 34 28 22 17 14 14 14 14 14 15
49 47 47 60 65 64 61 54 57 60 51 40 39 41 44 46 46 46 46 46 46 47 47 45 38 31 26 22 20 20 19 19 19
51 47 50 62 67 67 65 56 60 62 49 42 42 44 47 48 48 48 48 49 49 48 47 46 45 41 32 26 24 22 22 21 20
52 49 51 64 71 70 66 59 66 64 48 45 46 49 50 50 50 48 49 51 51 51 51 48 45 41 34 25 23 22 21 20 19
60 52 49 70 80 75 66 71 78 63 50 49 51 54 55 54 52 50 53 56 57 57 56 52 47 38 28 23 22 21 19 16 14
64 57 64 76 84 84 70 76 88 62 54 53 55 58 58 56 56 56 59 60 62 61 60 55 41 28 25 23 20 17 14 14 16

GFSFLT1_700_rhum_027.txt.gz
RH
13 16 24 26 26 25 24 23 21 20 19 17 16 16 16 15 15 15 15 15 15 15 17 17 19 20 22 23 23 24 24 25 25
22 20 17 17 17 18 19 20 20 20 20 20 20 20 20 20 20 21 21 20 20 21 20 20 20 20 20 26 26 60 76 76 77
28 23 23 23 23 22 22 22 23 23 23 23 23 23 23 23 23 23 22 22 22 22 23 22 23 24 24 24 23 23 30 71 82
39 36 33 30 27 25 25 25 26 26 26 27 26 26 25 25 26 26 26 25 25 24 24 24 23 24 24 25 25 25 25 26 42
45 44 42 40 38 38 36 33 30 29 28 29 29 28 28 27 26 25 24 23 24 24 24 24 23 21 19 17 14 14 14 19 26
46 46 46 46 45 44 44 43 41 36 32 30 30 29 29 28 26 26 27 27 28 27 24 21 17 8 4 4 4 5 6 5 6
45 47 48 47 47 46 47 46 45 43 38 34 32 29 29 26 28 29 29 28 26 22 17 11 7 7 7 7 8 8 8 7 7
46 45 47 47 48 48 48 49 48 47 44 38 34 31 29 28 29 28 25 22 20 12 9 8 8 8 9 9 9 9 9 9 9
48 46 47 47 48 49 49 50 50 50 48 45 39 33 30 29 26 20 17 14 13 10 9 9 9 10 10 11 13 14 14 14 14
50 50 49 49 51 51 50 50 50 52 51 48 42 36 31 29 25 20 15 12 11 11 11 11 12 12 14 15 16 16 16 15 15
53 51 51 51 53 54 52 51 52 53 53 51 45 40 33 30 29 29 23 15 12 13 14 15 16 17 18 18 18 17 17 18 19
55 56 55 54 57 56 53 54 55 54 53 52 48 42 35 32 32 31 28 27 23 18 14 15 18 19 20 20 20 20 20 20 20
57 59 56 57 54 53 55 56 56 55 55 56 52 45 36 34 33 32 32 30 28 26 23 21 18 16 16 17 18 20 21 22 24
57 54 54 55 56 57 59 59 59 57 56 58 55 46 36 35 38 39 41 42 42 42 43 43 42 40 36 33 28 23 20 17 15
57 56 58 60 59 61 61 62 62 59 58 61 57 45 38 39 43 44 44 44 44 44 44 44 43 43 43 43 40 35 30 26 23
54 56 52 51 52 54 59 66 64 63 61 64 57 44 42 44 47 48 47 47 46 46 47 48 48 48 46 44 42 39 34 29 26
52 51 50 51 51 54 65 68 69 65 63 67 56 47 46 49 50 50 50 48 48 49 51 52 51 51 50 48 45 39 31 25 23
55 54 55 54 52 60 72 73 73 65 67 69 57 51 50 53 55 54 53 52 52 53 54 55 54 53 52 50 46 39 29 24 22
65 65 62 60 58 73 81 77 78 69 75 72 59 54 55 58 57 57 56 58 58 60 61 60 59 58 56 53 45 32 24 22 20
70 68 70 67 61 60 100 92 82 74 80 80 61 58 59 61 64 64 64 63 65 66 66 64 62 61 58 52 36 25 22 18 16

GFSFLT1_700_rhum_030.txt.gz
RH
18 14 17 21 22 22 20 18 18 17 17 18 19 20 20 20 20 20 19 19 19 19 18 19 20 18 20 24 29 26 31 25 30
22 22 22 20 20 20 20 20 21 22 22 23 23 23 23 23 23 22 22 21 21 20 20 19 19 19 19 20 20 36 53 78 77
35 27 24 24 23 23 23 24 25 25 25 26 25 24 24 24 24 24 24 24 24 24 25 24 24 24 24 24 24 24 25 43 74
43 42 40 39 38 37 35 33 30 27 26 26 26 26 26 26 26 25 24 24 24 24 23 23 23 23 24 24 24 25 25 25 34
44 41 42 44 44 43 44 43 41 37 33 30 28 27 27 26 26 24 24 25 26 27 27 25 24 22 18 14 10 7 6 10 20
46 47 46 47 47 46 47 47 46 45 42 37 33 30 28 27 26 26 26 28 28 27 25 23 18 11 7 5 6 6 6 7 7
45 46 48 48 48 48 48 49 49 49 48 46 41 36 30 28 27 28 27 26 24 22 18 13 10 8 8 8 8 8 8 8 8
45 46 46 47 48 48 49 50 50 50 50 49 47 42 35 30 28 27 24 20 16 15 13 10 8 8 9 9 10 10 11 11 12
47 48 48 48 48 49 51 50 51 52 51 52 50 46 41 34 30 28 25 21 14 12 11 10 10 10 11 11 12 14 15 15 15
47 49 49 49 50 50 52 52 52 52 53 54 53 50 45 37 32 30 30 28 23 15 13 12 13 14 15 16 17 18 17 17 16
48 50 52 50 52 52 54 56 55 53 54 55 54 53 49 42 34 32 32 30 27 25 21 17 15 16 17 19 20 20 20 19 20
52 52 54 53 55 54 57 58 57 56 56 56 54 54 52 46 36 34 33 32 31 30 28 27 25 24 22 20 17 16 17 18 20
56 56 56 60 60 56 58 55 58 59 59 57 55 54 54 47 38 35 37 39 40 39 39 39 40 40 40 40 40 39 37 33 28
55 56 59 64 59 58 57 59 60 62 61 58 56 56 57 48 38 38 41 43 43 43 43 43 44 44 45 45 43 42 40 40 39
57 58 57 56 57 61 62 60 58 63 61 60 60 59 59 48 40 42 46 46 46 46 45 44 45 46 48 48 48 47 44 42 40
58 62 63 62 62 57 54 53 58 58 62 64 64 61 59 50 44 47 49 50 49 48 46 48 49 50 51 52 51 50 48 45 42
63 62 63 57 58 53 52 52 54 59 66 69 65 60 58 53 48 49 52 52 52 51 50 51 52 53 55 55 54 52 51 49 45
59 59 62 60 55 56 55 55 57 70 71 73 69 67 63 56 53 52 54 57 56 55 54 55 56 57 57 55 53 52 52 50 44
62 62 66 68 62 63 63 60 66 77 83 81 72 72 69 60 56 56 58 59 61 60 59 58 59 58 58 59 57 55 55 52 40
80 78 75 73 73 75 72 81 73 82 85 91 81 78 75 65 61 60 62 64 66 65 62 61 61 61 62 61 61 59 58 50 32

GFSFLT1_700_rhum_033.txt.gz
RH
20 16 16 16 17 17 18 18 18 20 21 21 21 21 21 21 20 20 20 20 20 20 20 20 19 18 19 21 31 26 38 27 35
24 23 22 22 22 22 22 22 23 24 24 24 23 23 23 23 23 22 22 22 22 22 21 20 20 20 20 21 22 25 35 72 80
40 38 34 31 30 28 26 26 26 26 26 26 26 25 25 24 24 24 25 25 25 24 23 23 22 23 23 23 23 23 23 27 65
39 40 43 42 41 41 40 39 36 33 31 29 28 26 25 25 25 24 24 24 24 23 23 23 24 24 23 23 22 22 24 25 26
43 44 42 44 43 44 44 44 44 44 42 38 34 30 28 26 24 24 24 26 27 27 26 26 25 22 19 16 11 8 7 9 13
46 47 46 47 47 47 48 47 48 48 48 46 44 40 34 30 27 26 25 26 25 24 24 22 19 13 9 8 7 7 7 7 7
44 46 47 48 48 48 48 49 50 50 50 50 49 47 42 35 31 28 26 24 21 18 17 15 12 10 8 8 8 8 8 8 8
46 45 46 47 48 48 49 50 50 51 51 50 50 50 48 43 36 31 28 26 22 18 14 12 11 10 9 10 10 11 12 12 13
46 47 48 48 48 48 49 51 51 52 52 52 52 52 51 48 42 35 31 30 28 25 18 14 12 12 12 13 14 15 16 16 16
48 47 47 49 49 49 50 51 53 54 54 53 53 53 53 52 48 40 34 32 31 28 25 21 17 15 16 17 18 19 19 19 19
50 49 48 49 51 51 52 52 55 56 56 55 55 55 54 52 50 44 35 33 33 32 30 28 27 26 25 23 21 18 17 18 18
52 52 50 50 53 53 53 54 56 58 56 56 57 57 55 52 50 46 37 35 37 38 38 37 38 38 38 38 38 39 38 38 37
56 55 54 56 58 56 59 58 58 58 58 58 59 58 54 52 51 47 38 37 40 41 40 41 40 41 41 42 42 43 43 43 41
50 54 59 62 61 61 65 60 59 58 61 60 60 57 56 55 53 48 40 39 43 44 44 44 43 43 44 45 46 46 45 45 44
48 54 60 59 61 65 64 59 60 62 60 57 57 58 58 58 55 50 42 42 45 47 46 46 45 45 47 48 49 49 48 47 45
49 55 59 62 61 64 61 61 62 57 54 54 55 58 60 58 56 52 45 45 48 50 50 50 48 48 49 50 52 52 51 48 47
54 55 60 59 62 66 67 65 57 54 53 52 57 59 63 60 58 56 49 48 50 53 54 53 53 51 51 53 54 54 55 54 53
60 60 62 64 65 66 69 64 57 55 54 54 61 64 65 66 63 59 54 52 52 55 57 58 57 56 55 55 55 54 55 56 56
72 61 60 68 68 68 65 66 62 59 56 60 60 76 78 73 69 65 61 57 56 59 60 61 61 60 58 58 57 56 56 59 61
75 74 67 57 68 71 63 74 71 72 72 68 68 81 86 86 76 73 67 63 60 60 62 63 62 61 62 61 60 60 62 67 65

GFSFLT1_700_rhum_036.txt.gz
RH
20 17 16 17 18 18 18 19 19 20 20 20 20 19 20 20 20 20 20 20 20 20 20 20 19 19 26 23 33 63 45 47 30
26 23 23 23 23 23 23 24 24 24 24 24 24 23 23 23 23 23 23 23 23 22 23 22 22 22 23 24 24 26 42 69 83
40 40 37 34 31 30 28 27 27 26 26 26 26 26 26 26 26 25 24 23 23 23 22 22 22 22 24 24 24 24 24 28 51
40 38 39 40 40 41 41 40 39 37 34 32 30 28 27 26 25 24 24 24 24 24 24 25 26 25 25 24 24 24 24 26 26
42 43 44 44 44 43 43 43 43 44 44 43 40 36 32 29 27 26 25 25 26 25 25 24 23 21 18 16 11 8 8 10 13
45 46 46 46 47 47 48 47 46 46 47 47 47 46 43 38 32 28 26 25 23 21 20 19 17 14 12 10 8 8 7 7 7
44 45 47 47 48 48 48 49 49 49 48 47 47 48 48 46 40 36 31 26 24 21 17 15 13 11 9 9 9 9 9 9 9
42 44 45 46 47 48 48 49 50 50 51 50 50 49 48 49 47 44 39 32 28 26 21 15 12 11 11 10 11 11 12 13 14
46 46 46 47 48 48 48 49 50 51 52 52 52 52 51 50 50 48 44 36 32 30 27 23 17 14 14 15 15 16 17 18 18
49 48 47 46 48 48 48 49 50 52 54 54 54 53 54 52 52 50 46 40 33 32 30 27 25 23 20 18 17 17 17 18 19
48 50 49 48 48 49 49 50 51 52 55 57 55 55 56 55 52 49 47 42 35 34 34 34 34 34 35 35 36 35 35 35 34
50 50 50 50 49 49 50 52 52 53 54 58 57 57 57 56 52 50 47 43 36 37 38 38 38 39 39 40 41 41 41 41 40
56 52 51 52 52 51 52 56 54 57 57 59 59 60 59 55 51 52 50 45 38 39 41 41 41 40 40 40 41 42 43 44 43
54 57 56 55 54 55 57 60 58 62 60 60 60 62 57 54 51 53 52 47 41 39 43 44 44 43 42 43 43 44 44 45 45
51 52 56 54 52 57 60 63 63 69 62 60 63 60 53 52 53 55 55 50 44 41 44 46 46 46 45 45 45 46 47 48 47
54 53 52 51 52 59 63 63 64 65 60 64 63 57 53 49 51 56 56 53 47 44 45 48 49 49 48 48 48 48 49 49 50
63 61 56 56 55 60 63 61 63 62 64 66 60 54 51 46 53 59 58 56 52 47 47 49 51 52 52 52 51 51 51 50 50
56 59 57 62 64 60 64 62 64 69 72 67 62 55 51 51 59 63 63 60 56 52 50 51 53 55 56 56 56 56 55 54 53
62 55 63 67 64 61 65 66 68 69 66 68 62 59 57 58 59 66 67 65 61 58 56 55 56 56 59 59 58 58 58 57 56
74 70 63 66 66 68 68 71 69 69 71 71 69 70 72 68 68 71 75 74 70 67 64 61 60 59 59 59 59 60 59 60 60

GFSFLT1_700_rhum_039.txt.gz
RH
21 17 15 17 18 18 18 18 18 18 18 18 18 19 20 20 19 19 19 19 19 19 20 19 20 20 29 23 45 54 75 71 37
29 23 22 22 22 22 22 23 23 23 23 23 23 23 23 23 23 22 22 22 22 22 22 22 22 23 23 23 23 26 34 46 74
38 39 38 36 32 30 29 28 27 27 26 25 24 24 24 24 24 23 23 22 22 22 23 24 24 24 23 23 23 24 24 26 34
41 41 40 39 39 39 39 39 39 39 38 35 32 30 28 27 26 25 24 23 23 22 24 26 25 25 24 23 23 23 22 22 24
43 43 44 45 44 44 44 42 41 41 42 43 43 43 41 36 31 28 26 25 24 22 22 22 21 20 19 16 13 9 7 6 6
44 45 46 46 46 47 47 48 47 47 44 42 42 44 44 44 43 39 34 30 26 23 21 18 16 15 13 11 10 8 8 8 8
37 41 45 46 47 47 48 48 49 49 49 48 47 46 46 43 44 45 44 38 32 28 25 21 16 13 11 10 9 9 9 10 10
43 42 42 44 46 47 48 48 48 50 50 51 51 50 50 50 45 46 45 44 38 32 29 26 21 15 13 12 11 11 12 13 14
46 45 44 45 46 47 48 48 48 49 50 52 53 52 52 52 52 47 47 46 41 35 31 29 26 22 18 15 15 15 16 17 18
46 47 48 47 46 46 47 48 49 49 50 52 54 55 54 54 54 51 46 46 43 37 33 32 30 28 26 24 23 22 21 20 18
48 48 48 49 48 47 47 48 49 50 50 51 53 57 56 54 56 53 47 46 45 39 34 35 35 35 35 35 36 35 36 36 36
50 50 49 49 50 49 49 48 48 50 52 52 54 56 58 57 57 55 44 48 47 42 36 37 38 38 38 38 39 39 40 39 39
54 54 52 51 51 50 50 50 50 50 53 54 55 57 59 58 59 55 47 48 50 45 38 38 40 41 40 40 40 40 42 42 42
56 57 59 56 57 54 53 54 54 53 56 58 59 61 60 59 60 52 50 49 53 49 42 39 41 42 42 42 41 42 42 44 45
48 50 53 51 50 57 58 59 59 58 60 61 62 65 61 61 60 49 49 50 56 52 46 41 41 44 45 45 44 44 44 44 44
46 53 57 55 54 52 56 54 54 59 61 61 63 65 62 63 59 49 46 52 58 55 51 46 43 44 47 48 48 47 47 47 46
52 55 59 65 64 61 57 55 56 60 63 62 65 62 63 63 58 53 50 52 59 58 55 51 47 46 48 50 51 52 52 51 51
59 59 62 60 64 68 66 65 64 64 70 67 67 68 67 64 59 57 56 56 57 62 60 57 53 50 50 51 52 54 56 56 56
57 60 61 66 63 62 60 64 69 73 71 73 67 68 69 68 62 60 62 62 63 65 66 63 60 57 55 54 55 56 58 59 59
56 71 77 74 66 69 70 66 62 68 72 75 76 78 73 72 69 65 65 68 76 80 78 73 68 65 63 62 60 60 60 60 60

GFSFLT1_700_rhum_042.txt.gz
RH
22 19 16 16 16 16 16 16 17 17 17 18 18 19 19 19 18 18 19 18 19 18 18 18 20 20 21 28 35 61 38 55 54
35 28 23 22 22 22 22 23 23 23 23 23 23 23 23 22 21 20 20 20 19 19 20 19 20 20 20 21 21 22 25 35 65
39 37 37 37 37 36 36 34 33 32 30 29 28 26 26 24 23 22 20 20 20 21 21 22 21 22 22 22 22 22 23 23 25
42 42 44 43 39 38 38 38 38 39 40 40 39 38 36 34 31 28 26 25 24 22 22 22 22 22 22 22 21 20 19 19 19
44 44 45 46 46 46 46 45 44 43 40 38 38 37 38 38 40 40 38 34 28 24 22 20 19 19 18 17 15 12 10 8 6
37 43 46 46 47 48 48 48 49 48 47 46 46 44 43 41 35 35 39 40 38 34 27 24 20 17 15 14 11 10 9 8 8
39 38 39 44 46 48 48 48 48 49 50 50 50 50 49 49 47 42 38 37 37 35 32 28 26 21 16 13 11 10 10 10 10
43 41 41 42 42 45 47 48 48 49 50 51 52 52 52 52 51 51 47 42 41 38 35 31 29 26 22 17 14 12 12 12 13
46 45 44 43 43 43 43 47 48 49 50 50 51 53 55 54 53 53 53 47 41 41 38 33 31 29 27 23 19 16 16 16 16
47 46 46 47 47 46 44 45 45 47 48 50 51 52 54 56 55 54 54 53 42 44 41 35 33 33 32 30 29 27 27 26 26
53 50 49 48 47 48 48 48 46 46 46 48 51 52 53 55 57 55 56 56 43 41 43 38 34 35 35 35 35 35 36 36 36
57 56 52 50 49 49 49 50 50 49 47 48 49 52 54 55 57 57 57 57 46 42 45 43 37 36 38 38 38 38 38 38 38
57 57 56 54 53 53 52 51 50 50 50 51 50 52 55 56 59 59 57 59 49 44 46 47 41 37 39 40 40 40 40 40 40
51 60 61 59 58 61 61 58 58 56 54 55 55 54 58 59 61 61 59 58 51 45 47 51 46 40 40 42 43 43 42 42 43
42 51 56 53 52 50 53 52 53 63 65 63 60 57 60 62 63 64 61 61 53 44 49 54 51 45 42 43 45 45 45 45 45
38 46 55 54 50 50 59 58 56 60 62 61 58 62 68 66 67 67 62 63 55 48 43 57 55 51 46 44 46 47 47 48 48
42 42 45 53 57 56 59 62 66 64 61 60 63 67 67 67 67 65 65 65 59 53 50 56 56 56 53 48 47 47 49 50 51
50 48 45 51 55 62 65 64 64 70 71 67 68 68 67 68 68 68 70 69 62 58 56 57 59 60 59 56 52 50 52 53 53
46 54 53 56 60 61 63 70 70 71 68 70 68 71 71 74 71 71 71 67 65 63 62 65 67 69 66 64 60 57 56 56 56
27 30 38 57 67 65 72 72 69 68 74 71 70 75 77 74 75 78 74 73 73 66 73 78 78 78 81 78 75 68 67 65 65

GFSFLT1_700_rhum_045.txt.gz
RH
23 21 20 17 16 16 17 17 18 18 19 19 20 20 19 19 20 18 19 19 19 18 18 18 18 18 18 19 20 24 38 71 79
35 34 31 27 24 24 23 23 23 23 23 22 22 22 21 20 20 19 19 19 19 18 18 19 20 20 19 20 20 22 24 39 67
36 36 35 35 35 35 35 35 35 36 35 35 34 33 32 31 29 28 26 25 24 22 20 20 20 21 21 22 22 23 23 24 25
44 41 42 45 44 44 42 40 38 35 32 31 30 31 32 32 38 38 37 35 31 26 23 22 20 19 19 19 19 19 17 17 18
37 44 46 46 47 48 48 48 48 47 46 45 46 44 41 38 34 29 27 31 35 36 31 25 23 20 18 17 16 15 13 12 9
41 40 40 45 47 48 48 49 49 50 50 50 50 51 50 50 49 47 41 32 31 31 31 30 27 24 21 17 14 12 11 10 9
42 40 40 40 42 44 47 49 49 49 50 50 52 53 53 52 52 52 51 48 37 36 34 31 29 27 25 21 16 12 11 10 10
43 43 42 41 42 42 42 43 46 48 50 51 51 52 53 53 53 54 54 52 50 36 36 36 32 29 28 26 22 18 14 13 14
44 44 44 44 43 43 43 43 44 42 42 43 48 52 53 53 55 56 56 55 53 48 35 38 35 31 30 30 28 25 20 18 17
49 48 47 46 46 46 47 46 46 45 45 45 45 46 49 50 53 55 57 56 56 55 38 39 39 35 32 32 32 31 31 31 31
51 52 54 51 49 48 47 47 48 48 48 48 47 48 48 49 50 53 56 58 57 57 47 40 43 40 34 34 35 35 35 35 36
46 51 55 58 58 54 52 50 50 50 50 50 50 50 50 50 52 53 55 59 59 58 56 40 43 45 38 36 37 37 37 37 37
38 42 46 52 58 60 59 57 55 55 55 54 52 52 53 54 54 55 56 60 61 60 58 45 43 47 44 39 39 39 39 39 40
37 38 39 42 53 58 60 61 60 59 58 61 62 60 57 59 57 57 58 60 64 62 61 52 45 46 50 43 40 42 42 42 42
42 41 42 38 40 48 53 53 52 51 52 56 57 62 62 62 60 59 62 63 64 65 65 57 49 46 54 50 44 43 44 45 45
47 44 43 47 42 45 58 58 54 52 66 69 63 64 63 59 58 59 63 63 69 66 66 62 55 49 55 55 50 46 46 47 48
48 42 38 45 48 50 50 51 58 61 64 68 78 75 68 62 60 65 68 68 68 67 69 66 60 57 56 61 57 53 48 49 50
48 46 45 48 49 50 54 56 60 63 66 70 73 78 74 70 68 69 70 70 71 72 74 73 67 64 62 65 65 60 57 53 53
25 32 34 32 39 43 49 54 59 73 68 67 71 75 77 77 75 72 74 73 74 76 77 77 72 74 79 69 70 70 66 63 59
27 31 37 41 41 43 40 42 58 66 79 74 75 81 79 77 79 78 72 74 76 84 97 98 84 85 82 82 80 76 90 84 92

GFSFLT1_700_rhum_048.txt.gz
RH
25 22 22 21 20 20 20 21 21 21 21 21 21 21 20 20 20 20 20 19 18 18 18 18 17 18 18 19 23 23 59 79 75
34 34 34 32 32 31 31 31 30 31 30 30 30 30 30 29 28 28 27 25 24 22 21 19 19 20 21 21 22 22 23 30 53
36 34 35 35 35 34 33 33 33 32 31 32 31 31 32 32 31 32 34 34 31 27 24 23 21 20 20 20 21 22 22 23 24
38 40 40 41 44 44 45 44 44 44 43 44 45 44 43 41 39 34 27 25 28 31 32 28 24 22 20 18 18 17 17 16 16
43 41 40 43 46 47 49 49 50 50 49 50 50 50 51 50 48 45 44 42 32 28 27 27 28 26 23 19 16 15 14 12 11
43 42 43 42 43 44 47 48 48 49 50 49 50 52 53 53 49 50 49 47 44 37 30 30 28 26 25 24 20 16 13 12 10
42 41 42 43 43 43 43 44 47 48 48 51 52 52 53 54 54 54 53 52 50 47 39 32 32 29 27 26 24 21 16 13 12
42 42 43 43 43 44 44 44 44 44 44 43 46 47 49 51 54 56 57 57 56 53 52 35 35 35 30 29 28 26 22 18 16
44 44 44 44 44 44 44 45 45 46 46 45 46 47 47 47 49 53 55 57 58 57 56 54 36 39 35 31 31 30 28 25 23
49 49 49 48 46 46 45 45 46 47 47 47 48 48 48 48 49 50 53 55 58 59 58 57 46 38 41 35 33 33 32 32 32
52 52 54 56 57 57 51 49 49 48 48 49 49 50 50 50 50 50 50 54 56 60 60 59 56 41 43 41 36 36 36 35 35
41 43 44 47 51 56 59 60 57 53 52 52 52 51 52 52 52 52 53 53 56 58 62 61 60 48 44 46 40 38 38 38 37
34 32 30 31 36 42 47 57 61 60 61 62 64 66 63 60 56 55 56 57 58 60 62 64 63 57 46 48 47 41 40 40 40
38 37 35 34 35 35 36 39 49 55 55 55 56 58 58 59 61 62 64 62 59 62 65 67 66 65 53 50 52 47 42 42 43
42 43 45 51 48 43 41 39 41 47 53 54 52 57 57 58 59 61 61 61 60 64 69 73 71 70 61 53 55 54 47 44 45
46 45 47 52 49 49 52 50 47 50 53 57 55 59 70 70 66 65 62 60 65 72 73 80 77 74 71 62 59 60 54 48 47
44 48 46 43 42 44 48 58 59 56 58 60 64 66 66 62 65 76 73 70 70 73 75 74 78 77 80 72 69 66 63 54 50
27 36 34 29 26 25 29 40 56 57 63 67 72 77 72 69 69 71 74 76 78 78 73 76 79 84 91 88 77 78 74 60 56
20 23 26 29 30 28 28 32 37 44 50 64 66 72 82 84 78 73 75 76 75 77 80 82 84 89 100 100 95 92 92 91 73
19 23 28 33 43 48 46 44 50 52 54 53 59 89 79 77 82 80 86 87 84 82 85 80 90 99 100 99 100 100 98 93 94

GFSFLT1_700_rhum_051.txt.gz
RH
31 27 24 24 23 23 23 23 23 24 24 24 25 26 27 28 28 28 27 26 25 23 21 20 19 19 19 19 24 53 66 58 62
31 33 34 34 34 34 33 32 32 32 31 31 30 29 29 28 28 28 30 31 32 30 26 24 22 21 20 21 22 24 24 28 35
32 32 35 38 41 41 41 42 42 42 42 44 46 45 44 43 42 40 36 28 24 25 29 29 27 23 20 19 19 20 21 23 25
41 40 36 33 38 43 46 47 48 48 47 47 50 52 52 51 47 46 45 44 41 32 29 26 25 26 25 21 17 16 15 14 14
42 42 43 42 41 38 40 45 47 47 47 45 44 49 51 50 48 50 51 49 48 44 37 31 30 27 26 25 22 17 14 12 11
43 43 44 44 45 44 43 43 44 45 44 47 46 48 51 52 53 54 55 55 54 53 50 44 33 34 29 27 25 21 16 12 11
43 43 43 44 44 45 45 45 46 45 46 45 45 46 47 50 52 53 55 56 56 57 56 52 46 35 35 30 28 26 22 18 14
41 42 43 43 43 44 44 46 46 47 48 48 47 47 48 48 50 51 52 52 55 57 58 58 54 44 36 36 31 30 28 24 20
43 43 43 42 43 44 44 44 45 46 46 47 47 47 48 48 49 51 52 52 53 55 56 59 59 56 40 40 37 33 32 30 28
47 49 50 50 50 49 48 47 46 46 46 46 47 48 49 49 50 50 50 52 53 54 56 58 61 60 56 41 42 37 35 34 34
52 53 54 56 60 63 64 64 61 58 55 52 51 50 50 50 51 52 52 52 53 55 57 58 61 62 61 50 44 43 38 37 37
41 43 46 47 46 45 45 48 54 59 62 62 61 60 59 58 57 56 54 54 55 56 58 61 62 64 65 60 48 48 43 40 40
40 37 36 35 34 32 31 34 37 44 54 64 68 68 66 64 63 62 62 63 60 61 61 64 65 66 68 67 57 50 50 43 42
38 35 33 36 36 37 38 37 38 38 36 40 47 51 53 53 52 53 58 61 66 69 68 68 72 71 72 71 68 56 54 50 44
41 40 42 42 43 44 46 47 44 42 43 41 38 42 48 55 54 59 69 68 67 67 68 75 80 79 81 79 76 68 61 58 51
48 48 49 51 51 48 48 46 43 43 50 53 50 55 57 53 53 63 66 71 75 72 73 76 84 87 88 87 83 82 74 68 57
27 37 43 46 41 43 45 41 40 44 48 60 71 71 66 62 64 66 71 69 73 79 81 81 82 86 84 86 88 89 87 78 69
16 33 30 35 36 26 23 21 21 30 31 33 56 64 58 60 66 65 68 75 75 76 81 83 82 84 88 92 99 97 98 95 81
17 18 20 23 25 26 27 27 29 32 36 42 41 45 53 60 55 58 70 75 81 82 80 85 84 83 86 94 100 100 100 100 100
20 22 22 23 26 31 35 42 42 39 39 43 48 50 52 62 64 63 61 67 88 90 86 81 84 89 95 99 99 100 100 100 99

GFSFLT1_700_rhum_054.txt.gz
RH
32 32 32 32 32 32 32 32 32 32 33 33 32 31 30 28 27 25 25 27 28 29 28 25 23 22 21 28 46 60 61 46 49
30 33 34 35 34 34 34 32 32 33 36 39 42 44 46 46 42 39 36 33 26 23 23 27 28 24 22 20 19 20 29 57 39
36 35 32 35 37 38 39 40 42 43 45 47 49 50 51 48 44 45 43 42 42 39 31 27 25 26 26 22 18 17 16 18 20
42 42 42 42 39 32 30 34 37 36 37 40 40 42 44 45 47 50 51 50 49 47 44 36 31 31 28 26 23 19 14 14 13
44 44 44 44 45 45 44 44 43 44 43 42 43 42 42 44 46 47 48 48 47 51 53 47 44 32 32 29 26 23 19 14 12
44 45 45 45 45 46 46 46 46 47 47 47 46 47 48 48 50 50 49 50 52 53 56 57 54 48 34 35 30 28 24 19 14
43 44 44 45 45 46 46 46 46 47 48 48 47 47 48 49 49 50 51 51 52 52 52 54 58 58 51 37 36 31 29 25 20
41 41 42 43 44 44 45 45 46 46 47 47 47 48 48 48 49 50 51 52 52 52 53 53 55 60 59 51 39 38 32 31 28
43 42 42 42 42 43 43 44 44 45 45 46 47 47 48 48 49 53 50 51 51 52 53 54 55 55 60 60 50 41 38 34 33
47 48 49 50 51 52 53 54 54 52 51 50 49 50 50 49 50 50 51 52 53 53 53 55 57 58 58 62 61 48 42 39 36
46 49 52 56 58 60 60 60 59 60 62 63 62 60 58 56 54 53 53 53 54 54 55 56 57 60 62 64 65 60 46 44 40
37 37 44 49 48 45 42 39 37 39 44 53 62 66 68 68 68 67 66 65 65 63 61 59 60 61 64 65 68 67 57 49 46
45 48 45 41 38 35 35 35 35 34 37 40 45 51 58 63 63 61 60 59 60 64 68 70 72 68 69 69 69 71 68 57 52
40 41 41 41 39 36 38 42 46 48 47 44 42 43 42 46 52 58 58 56 59 64 68 72 74 73 74 76 75 74 74 70 59
32 34 39 42 43 46 46 49 49 48 49 46 42 47 50 49 46 51 54 58 64 72 76 75 73 73 77 80 82 82 82 80 73
28 26 29 47 52 53 54 51 45 42 50 50 42 40 49 53 62 65 66 64 66 70 73 78 82 80 82 85 91 92 88 86 85
16 18 19 22 29 37 48 56 62 47 33 29 27 30 29 27 43 60 64 66 69 70 75 80 83 86 87 86 89 94 91 90 88
24 26 22 23 17 31 43 24 21 21 24 30 35 36 40 38 39 42 49 56 61 61 70 90 90 89 91 93 92 94 100 100 100
15 15 16 17 19 20 22 26 32 60 45 35 44 46 47 50 50 57 50 56 70 70 80 78 84 86 83 87 93 100 99 98 99
14 15 16 18 21 21 23 25 41 35 25 26 22 29 41 48 56 52 61 64 67 69 71 75 80 98 91 86 88 99 98 99 99

GFSFLT1_700_rhum_057.txt.gz
RH
31 31 31 31 30 31 31 31 30 30 29 29 31 33 36 37 36 35 32 28 24 22 23 25 26 24 21 21 29 31 50 49 36
29 30 32 33 33 34 35 38 41 43 44 45 45 46 44 41 40 39 37 36 37 35 30 28 26 25 25 23 18 17 36 53 50
38 40 36 32 30 33 36 40 40 39 39 40 41 43 43 44 43 41 42 43 44 45 42 39 30 29 26 25 23 18 14 14 24
43 42 44 45 45 44 43 41 40 38 39 40 41 40 41 42 42 42 45 48 49 49 50 49 45 34 32 30 26 24 20 15 12
44 44 45 45 45 46 46 47 48 48 48 48 48 47 47 48 48 48 49 49 48 46 45 47 53 52 41 34 32 26 25 21 16
45 45 45 46 46 46 46 46 47 47 48 48 48 48 49 49 49 50 50 51 51 52 51 48 45 51 55 48 35 33 28 26 22
43 44 44 46 46 47 46 46 47 47 47 48 48 48 48 48 49 49 50 50 51 52 53 54 53 48 50 55 52 37 35 30 28
41 41 41 42 43 44 44 45 45 46 46 47 47 48 48 48 49 50 52 55 51 52 52 53 54 55 52 53 58 55 38 37 32
42 42 42 42 42 42 43 44 44 45 46 47 47 46 47 48 49 49 50 52 50 53 53 53 54 56 57 56 56 60 54 40 38
47 47 48 49 50 51 52 54 56 58 60 62 61 59 57 55 54 53 52 52 51 51 54 54 55 56 57 59 59 60 62 52 42
44 47 49 52 53 54 55 57 55 52 49 49 52 57 60 62 62 62 61 61 62 63 63 63 61 60 59 61 62 61 64 64 51
34 38 37 40 41 43 44 42 38 34 31 31 35 41 47 54 60 65 68 66 64 63 62 62 62 65 67 68 66 66 66 69 66
25 32 41 47 45 41 38 36 34 34 36 39 41 41 42 41 41 43 53 56 56 56 56 56 60 66 69 70 69 69 72 72 73
29 30 40 45 43 40 39 38 40 43 44 48 50 48 46 46 46 46 49 53 56 55 56 62 70 75 76 74 72 72 73 82 80
32 31 34 41 41 40 40 42 47 51 54 56 51 42 48 51 46 46 54 62 72 68 65 67 69 74 79 82 81 80 78 76 88
26 24 24 31 32 34 38 53 56 55 56 61 58 54 36 28 28 34 40 51 72 74 72 72 74 78 78 83 88 90 92 88 80
23 22 20 18 18 20 26 32 34 43 66 50 27 19 20 26 32 37 46 44 49 58 59 70 76 82 82 83 86 89 93 96 96
26 24 24 25 37 33 24 23 19 18 19 21 26 38 43 27 36 39 41 43 49 53 55 64 65 64 65 83 87 90 93 99 100
18 19 19 18 17 17 18 19 20 25 28 30 27 40 27 30 30 41 53 45 50 53 64 66 72 71 70 70 77 84 91 90 94
13 13 14 15 16 17 19 22 22 21 21 21 29 23 22 32 53 51 56 74 80 77 67 62 63 56 60 67 60 67 86 94 80

GFSFLT1_700_rhum_060.txt.gz
RH
31 31 30 30 30 30 30 29 29 29 31 34 37 37 36 34 34 32 32 32 31 28 24 22 21 22 24 21 19 19 40 39 36
29 30 33 34 35 37 37 38 37 38 40 42 42 40 38 37 37 37 36 37 38 38 38 32 28 28 25 24 23 19 16 21 42
40 40 36 32 32 33 33 33 33 34 36 37 38 38 38 38 39 40 40 39 39 40 42 44 43 34 31 29 25 23 20 16 14
42 40 43 45 45 45 45 46 45 46 47 46 46 47 47 47 47 48 48 47 44 43 42 40 43 46 42 32 32 27 24 21 16
44 45 45 45 44 45 46 47 47 48 48 48 48 48 49 49 50 50 50 51 52 52 52 51 47 44 47 48 35 32 28 26 22
45 45 46 46 46 46 46 46 46 47 48 48 48 48 48 48 49 49 49 50 50 52 52 53 54 54 50 46 51 44 33 30 26
43 44 44 45 46 46 47 47 46 47 47 47 47 48 48 48 48 48 50 50 54 52 51 52 53 54 55 54 50 53 51 36 33
41 41 42 42 43 44 44 44 45 45 45 46 46 46 46 47 47 48 49 49 51 51 50 53 53 54 54 56 57 53 54 54 39
41 41 41 41 41 41 42 43 44 45 48 50 51 52 54 53 52 52 52 51 51 52 50 50 53 54 55 56 58 59 56 57 56
44 45 46 46 47 48 49 51 52 54 55 57 58 59 57 57 58 59 60 59 58 58 58 59 59 61 60 59 59 60 61 60 62
42 44 48 50 50 51 51 51 50 47 44 43 40 36 33 36 41 47 53 59 64 66 67 66 64 64 64 64 62 62 63 64 63
25 29 37 38 36 36 39 41 41 39 35 34 33 32 33 35 38 38 38 42 48 54 57 57 55 56 57 59 63 68 69 68 68
35 24 26 30 32 37 41 41 38 37 37 36 39 42 43 48 47 45 44 43 43 44 49 53 54 57 59 63 65 65 67 71 70
42 39 31 30 32 35 38 40 40 40 41 44 49 50 53 54 54 49 48 48 49 54 55 56 58 59 64 68 71 69 70 71 74
42 39 36 33 33 33 37 39 40 41 48 56 59 63 64 58 58 52 44 36 39 53 65 74 75 70 68 68 72 76 77 76 76
34 30 29 28 26 26 25 30 34 42 42 48 41 45 57 62 34 24 26 34 36 41 43 56 75 74 72 71 73 78 81 88 88
25 24 24 23 23 23 22 25 32 31 30 36 37 25 22 23 23 48 37 39 47 47 48 48 52 57 62 70 75 77 82 87 93
30 30 29 27 26 28 31 34 40 39 29 42 34 46 35 35 26 31 26 27 31 36 44 49 52 53 58 67 71 72 81 90 94
21 18 16 16 17 19 22 20 20 21 21 23 29 45 45 25 31 20 22 26 36 37 49 68 69 68 70 71 73 69 67 81 80
17 14 12 12 13 14 15 16 18 20 21 22 22 22 25 24 23 22 29 50 45 63 69 66 72 54 39 39 40 41 46 57 58

GFSFLT1_700_rhum_063.txt.gz
RH
31 30 30 30 30 29 29 28 29 32 37 38 36 35 35 33 34 33 32 33 32 32 29 25 24 24 21 21 21 20 18 23 43
31 32 33 34 36 36 37 38 40 39 38 35 33 31 32 32 34 34 33 33 33 33 33 34 33 29 26 26 24 22 20 18 16
35 32 30 31 31 32 31 31 32 33 35 37 39 40 42 42 44 44 45 46 45 42 40 36 36 37 38 31 29 28 24 22 18
40 36 42 45 45 46 46 46 47 48 48 48 48 49 49 49 50 50 50 51 51 52 52 52 51 47 40 40 42 31 31 26 23
44 45 45 45 42 45 46 47 47 47 48 48 48 48 48 49 49 49 49 49 50 51 51 52 52 53 54 52 44 45 38 32 29
45 45 45 46 46 46 46 46 46 47 47 47 47 48 48 48 48 48 49 49 49 52 53 52 52 53 54 55 55 51 46 45 35
43 44 44 45 45 46 46 46 47 47 46 46 46 47 47 47 47 48 48 49 50 50 52 51 49 53 53 54 55 57 55 50 50
41 41 42 42 43 43 44 44 44 44 45 45 46 47 48 49 52 52 52 52 53 53 52 52 51 49 52 55 55 56 58 58 55
40 40 41 41 41 41 41 42 43 45 47 51 52 54 56 58 58 57 58 58 57 57 58 58 58 58 58 58 59 59 59 60 61
40 42 43 44 45 46 47 48 50 51 52 51 47 45 42 38 34 34 35 38 43 48 46 51 62 64 64 64 63 62 61 61 62
45 42 41 43 45 47 49 50 48 48 44 40 37 33 30 30 32 34 36 38 38 39 38 42 43 47 50 53 53 54 58 62 65
27 27 25 26 28 33 34 34 36 41 41 37 34 32 33 38 41 42 46 43 42 43 42 43 42 42 44 48 47 51 59 65 67
37 38 38 31 23 25 29 35 39 40 39 38 38 38 39 47 50 53 54 50 43 47 48 48 48 50 52 55 57 56 60 66 72
40 41 42 41 37 30 30 34 36 36 35 37 36 40 47 55 59 61 58 59 58 40 37 36 50 59 58 71 71 69 63 64 70
42 42 43 42 39 35 33 32 30 29 30 34 36 43 40 42 44 52 61 55 25 24 26 35 36 43 47 63 72 71 69 72 73
39 37 33 33 33 32 29 27 26 24 35 42 38 36 35 42 38 27 25 30 40 46 35 40 41 45 45 50 60 64 66 74 78
24 25 26 26 28 28 29 30 34 32 37 36 53 53 42 42 41 32 35 33 37 27 32 38 40 43 47 50 55 62 64 70 75
30 31 32 32 33 30 28 26 28 35 39 41 36 28 29 30 33 34 26 32 25 21 23 37 44 44 48 56 61 66 70 71 75
33 32 29 25 21 18 16 15 16 17 19 20 21 24 28 29 26 23 25 25 25 29 58 47 55 68 72 76 72 62 53 54 54
34 29 26 23 19 15 12 12 13 15 17 20 22 21 23 24 25 24 23 39 44 48 74 64 50 47 43 38 38 37 37 36 35

GFSFLT1_700_rhum_066.txt.gz
RH
29 28 28 28 28 28 28 29 32 34 34 34 31 28 28 25 25 26 26 27 27 27 28 28 30 28 26 26 24 21 20 19 18
30 30 30 30 30 31 32 33 33 31 29 28 29 32 36 35 37 39 43 46 47 46 43 38 35 32 33 33 28 28 25 22 20
27 26 27 28 28 28 29 31 35 38 41 44 46 47 48 49 48 50 50 50 51 52 52 52 53 52 49 40 36 35 30 28 24
38 36 39 42 44 44 45 46 47 47 47 48 48 49 50 50 50 50 50 50 50 52 52 52 52 53 54 54 54 46 38 36 31
45 45 45 45 45 44 45 46 47 48 48 48 48 49 49 49 49 49 49 50 50 51 51 53 51 51 53 54 55 56 55 46 41
45 46 46 46 46 47 47 47 47 47 47 48 48 48 48 48 48 48 48 49 49 50 51 52 52 50 49 52 54 56 56 57 54
44 44 44 45 46 46 46 47 47 47 47 47 46 46 47 48 51 54 56 57 57 57 58 57 56 55 54 50 53 55 57 58 59
42 42 42 42 42 42 43 43 44 44 44 45 46 50 52 53 52 52 50 42 40 42 45 48 54 56 58 60 61 61 61 61 60
40 40 41 41 42 42 42 43 44 45 48 50 52 50 45 42 38 31 29 28 29 31 34 36 39 40 48 54 58 60 60 61 61
39 40 42 44 45 46 47 48 49 49 50 48 42 38 33 30 28 28 32 36 37 39 36 34 34 36 37 39 40 43 46 49 52
42 42 36 29 29 30 34 38 38 37 34 34 35 33 30 30 32 36 40 42 44 44 43 39 41 39 40 41 43 47 50 51 52
32 27 31 32 32 28 21 22 24 28 33 36 37 34 32 32 34 37 46 51 52 51 56 55 48 44 43 42 48 52 64 61 64
31 36 37 38 38 37 36 28 24 25 28 32 31 29 28 29 37 40 45 40 39 47 58 48 31 26 30 35 42 42 46 61 66
36 38 39 40 41 40 36 36 33 28 26 28 31 32 38 41 46 43 40 45 43 25 22 24 29 30 34 36 38 44 47 51 60
38 39 40 39 40 35 32 28 28 28 27 29 28 33 39 37 32 42 40 38 35 34 31 30 43 32 37 42 45 47 46 52 60
39 39 34 28 26 26 26 27 28 28 30 34 36 49 46 43 50 41 40 37 38 38 28 39 25 24 28 36 45 48 51 56 58
27 25 25 26 28 30 32 33 34 33 31 27 28 34 34 34 32 24 20 20 26 30 28 24 23 30 38 43 43 48 55 60 58
29 28 29 29 30 31 31 28 24 20 17 19 20 36 26 21 21 25 24 23 25 29 27 29 34 63 52 65 72 78 77 75 72
33 33 31 32 33 30 27 24 22 18 15 14 15 20 25 33 24 23 24 25 25 24 28 42 47 70 64 52 50 47 40 40 41
35 36 37 35 31 28 23 19 16 14 13 16 17 18 20 22 24 24 24 28 25 26 39 38 53 78 82 69 43 41 37 36 31

GFSFLT1_700_rhum_069.txt.gz
RH
25 25 26 26 27 26 26 28 29 30 29 25 24 25 30 30 36 38 40 44 45 46 46 43 38 34 30 30 27 26 25 22 20
27 27 27 28 29 29 29 28 27 27 30 35 40 44 46 48 47 48 48 48 50 52 52 52 52 53 52 48 39 33 30 28 25
24 24 24 25 26 28 32 35 39 42 44 46 48 50 51 51 51 51 51 51 50 50 51 52 52 51 53 55 54 52 46 36 32
37 35 33 34 36 39 41 44 47 48 48 49 49 50 50 50 50 50 50 50 51 51 52 53 53 53 50 52 54 56 56 54 48
44 45 46 46 46 47 47 47 48 48 48 48 49 49 49 49 49 49 50 50 50 51 52 55 55 54 54 52 50 54 55 57 57
45 46 47 47 47 48 48 48 48 48 48 48 48 48 48 48 50 53 56 57 57 56 56 56 55 53 56 57 56 55 57 57 60
44 44 45 45 45 46 46 46 46 46 46 46 46 46 50 52 48 50 46 38 31 29 31 34 36 39 43 52 59 62 64 64 63
42 42 42 42 42 42 42 42 42 43 43 44 47 52 52 40 36 35 29 27 28 30 33 34 33 34 35 37 41 47 53 57 58
41 41 41 41 42 43 44 45 46 47 49 50 51 49 41 35 31 29 29 34 36 37 38 38 37 35 36 38 39 40 42 46 49
38 39 41 40 38 34 33 34 31 33 34 36 35 32 33 32 30 30 32 38 43 47 48 46 48 50 44 42 42 42 46 50 53
38 42 32 26 28 28 28 25 19 18 20 23 26 28 27 27 27 28 31 39 48 52 47 47 51 46 39 32 29 37 55 60 66
39 36 27 31 32 34 34 34 32 26 21 21 22 21 22 21 23 36 37 45 40 43 46 47 46 36 24 33 44 44 38 45 62
43 28 32 33 34 34 35 33 29 30 30 26 25 24 29 34 34 42 42 36 53 41 32 29 28 28 37 46 41 55 61 62 52
30 33 34 35 34 32 28 27 25 24 24 24 23 23 24 28 32 34 33 49 63 50 35 30 30 27 38 30 28 40 48 55 59
36 37 38 38 33 27 24 24 24 25 26 28 29 31 31 35 44 48 52 48 41 36 26 38 31 28 25 22 26 42 40 45 51
38 41 41 37 27 24 25 26 27 27 29 26 23 19 17 15 18 31 33 25 26 24 25 27 29 29 23 23 36 39 47 52 44
43 36 29 27 27 28 29 30 30 27 26 24 21 18 16 13 12 16 21 20 21 20 22 24 26 27 31 46 61 48 62 66 66
34 33 32 33 33 33 31 30 30 28 26 24 22 18 15 15 17 20 18 21 21 23 26 25 25 26 45 56 65 55 47 48 54
40 40 40 39 36 35 32 32 30 27 22 18 16 15 15 16 16 18 20 23 22 23 22 23 23 41 52 64 77 82 63 43 40
46 44 41 40 40 38 34 30 29 26 23 19 14 14 17 18 21 19 20 20 22 25 26 31 34 48 73 50 70 80 46 38 28

GFSFLT1_700_rhum_072.txt.gz
RH
19 20 23 26 26 26 26 27 26 24 24 28 33 40 46 46 48 48 47 48 48 50 50 49 49 50 50 47 42 34 31 28 26
26 26 27 26 26 26 25 25 28 33 36 40 44 50 51 52 52 52 52 52 52 52 52 52 53 50 50 53 54 54 52 43 34
22 22 22 24 25 30 34 38 42 44 46 49 50 50 51 51 51 51 51 51 51 52 52 54 54 54 53 51 51 55 56 56 54
31 31 32 33 34 38 41 44 46 47 48 49 50 50 50 50 50 49 50 53 54 55 55 55 55 54 55 55 54 52 55 55 58
43 44 45 46 47 48 48 49 49 49 49 49 49 49 48 49 50 53 54 55 54 49 46 42 40 42 45 50 55 58 59 59 59
45 46 46 47 48 48 48 48 48 48 48 47 47 47 48 52 51 45 43 39 32 30 30 32 35 35 36 37 43 53 59 62 64
44 45 46 46 46 46 46 46 45 45 45 45 46 48 51 48 40 34 33 29 29 32 34 36 35 33 34 35 35 37 41 48 53
43 43 43 43 43 43 43 43 43 44 45 47 49 50 45 37 32 31 30 31 36 38 40 42 44 43 46 41 40 39 39 41 44
42 41 41 41 41 40 41 42 43 44 45 48 47 38 34 30 30 29 30 31 34 41 46 47 44 43 51 50 42 42 42 44 49
40 40 40 41 32 28 26 26 24 25 26 25 22 24 27 28 27 25 24 26 32 37 36 36 35 42 57 52 38 33 30 36 50
38 38 41 38 27 29 30 31 30 29 24 19 18 18 18 18 19 22 26 37 41 44 38 42 36 36 44 38 42 50 50 43 39
38 38 43 29 31 31 31 29 28 27 25 26 25 21 21 22 27 31 34 42 37 34 63 51 38 29 28 42 62 58 60 70 66
38 39 39 30 34 34 34 31 29 26 23 23 23 22 23 23 26 28 36 40 41 47 61 57 40 27 32 26 38 47 58 66 72
38 43 32 34 37 38 37 32 28 25 25 26 26 26 28 29 25 22 24 36 40 49 43 35 23 23 26 28 25 21 30 55 64
40 42 33 36 38 38 34 28 25 26 28 27 26 26 24 21 18 16 15 17 24 31 38 24 24 24 23 26 23 23 30 36 51
46 36 38 39 40 33 27 26 28 27 28 27 26 24 24 23 21 16 15 17 21 23 18 22 22 23 24 26 26 33 58 54 60
42 42 43 44 34 30 30 31 31 29 30 29 27 23 22 19 18 16 15 17 19 18 18 21 23 24 27 30 26 42 57 54 62
48 46 44 34 34 35 34 32 32 32 30 30 28 24 20 17 15 13 13 16 19 21 23 24 22 23 28 35 34 40 57 68 60
52 51 48 43 38 37 36 35 35 34 31 30 30 29 25 20 15 14 16 19 21 24 23 22 24 26 30 43 48 74 50 46 54
75 68 52 46 41 42 42 41 38 37 42 42 38 32 26 20 18 16 16 20 21 23 24 26 28 32 43 56 73 58 41 49 43

GFSFLT1_700_rhum_075.txt.gz
RH
17 18 20 24 26 26 25 24 23 25 28 32 37 43 48 50 51 52 52 52 52 52 52 51 52 50 49 50 52 53 52 44 33
24 25 26 27 26 23 23 25 30 34 39 45 48 49 50 51 51 51 51 51 52 52 52 53 52 52 52 52 50 53 55 56 53
25 25 25 24 25 28 31 32 34 37 40 44 48 48 49 50 49 50 51 53 54 53 49 48 48 45 47 52 52 52 55 56 58
24 27 29 32 34 38 40 42 45 47 48 49 49 50 49 49 49 51 50 48 46 39 32 31 33 34 35 39 44 52 56 59 60
39 41 42 45 46 48 49 49 50 50 49 49 49 48 48 49 47 42 39 37 30 26 27 29 32 32 31 31 33 38 47 55 60
43 44 45 46 48 48 49 49 49 48 47 47 46 47 49 51 45 36 30 27 26 29 33 34 35 35 34 32 32 33 35 38 45
45 46 46 46 46 46 46 46 45 45 45 45 46 48 50 49 37 30 27 25 27 33 37 40 42 42 39 42 40 38 38 38 39
45 45 45 44 44 43 43 43 44 44 45 46 45 42 40 35 31 29 26 25 25 27 34 39 38 33 36 44 43 39 33 39 41
44 44 43 42 42 42 42 41 40 38 35 33 31 30 24 24 27 28 26 23 22 27 35 37 33 37 38 46 54 42 35 29 32
42 42 42 42 42 36 30 28 28 27 25 21 19 19 20 22 21 20 22 24 32 40 43 35 42 42 46 46 37 37 45 46 41
41 42 40 40 42 29 29 31 32 33 32 31 28 25 21 20 22 25 30 33 35 42 35 40 60 58 38 32 42 63 70 65 64
40 40 39 40 40 29 32 32 32 32 29 27 25 24 24 24 24 25 28 30 36 41 46 51 58 55 32 23 34 58 69 81 78
39 40 39 40 38 32 34 34 32 29 26 25 25 26 26 27 29 28 22 18 18 23 33 45 36 34 26 24 23 44 58 62 78
40 40 39 42 36 34 36 36 32 25 25 25 26 27 28 26 24 23 21 19 16 16 22 56 30 31 26 24 24 26 22 20 25
42 41 39 44 34 36 39 40 31 26 27 27 26 26 26 26 25 25 23 19 17 16 22 28 25 32 24 25 25 24 27 29 40
47 42 41 46 36 40 42 38 29 30 30 28 27 26 27 26 25 22 18 16 17 18 22 24 20 62 26 28 25 24 26 36 50
56 46 49 42 41 44 43 32 34 33 32 33 32 28 26 26 25 24 21 17 15 16 19 19 20 23 28 30 28 27 34 41 59
59 50 52 48 50 48 34 37 36 34 35 36 34 33 31 30 30 28 25 19 16 16 19 21 22 23 27 32 34 41 43 49 52
57 61 61 64 59 52 48 43 42 41 41 37 37 43 42 40 35 32 29 23 18 17 18 21 24 24 28 34 39 47 63 68 51
75 74 81 82 82 80 84 59 52 63 65 56 46 43 42 38 34 33 30 26 22 20 19 21 24 28 33 40 47 58 62 66 83

GFSFLT1_700_rhum_078.txt.gz
RH
13 17 20 24 26 26 25 23 24 27 31 38 42 42 42 44 47 48 49 50 49 47 45 45 42 44 44 45 44 45 47 50 48
19 23 26 26 26 24 25 28 32 34 38 41 44 46 47 48 48 49 49 50 49 44 39 37 36 33 34 37 41 46 49 50 50
25 26 24 23 24 28 32 33 35 41 45 49 49 48 47 45 43 43 43 42 38 31 27 27 30 30 29 28 31 37 43 49 54
23 22 25 28 30 34 36 39 44 47 49 49 48 47 46 45 43 36 32 32 27 24 25 28 30 29 28 28 28 30 33 40 48
31 36 40 42 43 45 48 49 50 49 48 49 48 47 46 44 39 31 26 26 25 27 30 33 34 35 35 33 32 30 31 32 35
38 41 44 46 48 49 50 50 49 48 47 46 46 46 45 42 36 28 25 24 24 26 32 36 39 39 36 32 34 33 31 32 33
44 45 45 47 48 48 48 47 46 46 45 45 46 46 44 39 32 28 27 24 22 22 24 30 32 32 30 30 33 40 38 30 28
46 47 47 47 46 46 45 44 43 43 43 42 41 39 35 32 28 27 26 22 18 20 30 37 38 32 33 36 36 49 45 35 31
47 47 46 45 44 42 42 42 41 38 34 30 26 23 22 23 24 24 22 20 24 30 36 41 31 42 46 48 42 30 31 39 45
46 45 44 43 42 42 37 32 30 30 30 29 27 24 22 21 21 22 24 28 29 30 33 37 37 62 66 57 29 34 44 60 60
44 43 43 43 42 42 32 30 32 32 33 33 31 28 27 26 26 26 26 27 30 31 35 40 43 51 53 49 52 55 62 66 64
42 42 43 43 41 43 32 32 34 34 34 32 29 27 26 27 27 28 30 30 23 20 18 20 22 30 37 41 79 70 60 86 87
42 42 43 43 41 43 34 34 35 37 33 28 26 26 26 27 27 27 24 23 22 20 18 18 25 47 24 42 30 24 23 29 50
43 42 42 42 40 42 37 35 38 40 33 27 26 26 28 28 27 26 26 24 21 18 16 17 24 25 24 25 29 23 22 24 24
47 44 43 42 40 42 40 38 40 41 32 28 30 30 29 28 28 27 26 23 21 19 17 17 19 23 24 35 36 24 25 24 26
51 46 46 44 43 46 42 39 42 44 31 33 33 32 33 31 30 29 30 29 25 21 17 15 16 20 22 58 22 23 22 22 24
69 64 60 50 48 51 43 44 48 36 36 37 37 37 34 34 33 34 34 34 30 25 21 18 17 18 21 20 23 23 25 27 32
91 75 84 71 73 58 59 57 45 40 42 44 43 39 37 34 35 33 33 33 33 30 25 21 19 21 23 24 28 32 32 36 40
82 89 95 85 75 70 73 73 61 60 47 52 66 74 71 67 61 49 40 35 32 31 28 25 22 23 27 29 34 39 42 45 52
97 98 95 96 98 96 92 77 73 67 61 76 75 74 73 67 60 51 44 37 30 26 26 26 26 25 26 31 34 39 43 60 94

GFSFLT1_700_rhum_081.txt.gz
RH
11 12 19 23 24 24 21 21 25 29 33 37 39 40 42 42 43 43 44 44 39 33 30 28 27 27 28 31 36 39 43 43 42
15 20 23 26 25 22 23 27 31 36 38 41 42 41 40 40 39 39 38 34 29 25 25 25 26 25 24 24 26 29 34 39 43
22 25 26 25 23 25 29 33 35 41 45 46 46 44 42 40 35 30 28 26 23 23 24 26 27 26 25 23 23 25 26 30 35
27 27 24 25 29 31 33 39 44 48 48 47 47 46 44 39 32 26 24 23 23 25 29 32 33 32 30 27 28 26 27 27 30
24 25 28 31 35 40 44 46 48 49 48 48 46 45 43 41 35 27 24 23 22 24 27 30 32 31 27 25 24 28 28 27 30
30 36 40 43 44 47 50 50 50 49 48 46 45 44 44 40 34 29 25 23 21 20 19 23 29 30 27 28 27 32 38 34 28
38 40 42 46 48 49 49 48 47 45 44 44 44 44 40 34 29 26 24 22 18 16 25 34 38 34 31 34 32 34 35 39 32
44 46 48 49 49 48 48 46 44 43 42 39 35 32 28 23 22 22 20 17 18 26 29 32 37 32 43 55 49 34 29 25 37
48 48 48 48 47 46 44 42 41 38 33 30 27 23 21 21 20 20 20 23 25 25 27 30 35 39 53 60 62 50 24 37 50
48 48 48 47 46 44 42 39 35 32 32 32 31 29 28 27 26 25 25 25 26 28 25 23 30 39 49 56 52 54 50 45 54
48 47 46 45 44 43 43 38 31 32 33 33 31 28 26 26 26 28 28 29 28 24 20 18 17 16 28 63 54 80 85 57 72
47 46 44 43 43 43 43 40 32 34 34 33 31 28 27 28 28 30 30 27 24 24 23 20 17 15 15 63 91 63 92 61 45
45 44 43 42 44 44 42 44 33 35 37 35 30 28 27 29 29 29 27 26 25 23 20 17 16 16 15 20 33 46 21 19 21
44 44 44 44 45 45 43 43 36 37 39 38 31 28 30 31 31 29 28 27 25 24 22 20 16 14 14 16 20 32 45 21 21
50 51 49 48 47 46 45 45 42 39 42 43 34 31 33 33 32 31 32 32 32 31 28 23 19 16 15 16 18 17 24 24 23
54 57 55 56 52 50 47 45 46 41 44 46 33 35 35 36 34 36 37 36 35 34 33 30 24 20 17 17 18 19 20 20 22
77 77 76 61 54 56 50 47 50 45 49 48 36 37 40 39 38 39 42 43 39 35 33 32 30 26 22 20 20 20 20 21 23
96 99 91 93 84 81 60 57 55 54 58 43 43 41 42 48 51 55 60 60 53 41 36 32 29 28 26 23 23 24 26 29 31
100 98 81 82 88 99 96 94 81 80 76 48 48 53 60 58 54 58 61 63 58 46 38 31 28 25 26 26 27 28 33 36 36
96 97 97 99 96 100 99 100 94 96 95 72 62 63 86 83 70 61 66 63 55 47 33 29 28 25 26 28 30 33 34 39 35

GFSFLT1_700_rhum_084.txt.gz
RH
68 57 12 17 22 22 21 19 20 24 29 32 33 36 38 37 38 36 33 29 25 23 23 23 21 20 20 21 23 26 32 35 38
42 13 20 24 24 22 21 24 27 31 34 36 38 35 35 34 34 32 30 27 23 23 24 24 23 22 21 20 21 22 24 29 35
14 22 25 27 24 22 25 29 32 36 39 40 40 38 34 30 27 26 25 23 23 25 28 30 30 27 24 23 23 22 22 24 26
24 27 28 25 24 27 31 33 38 42 44 42 41 38 36 33 29 25 23 22 23 25 28 29 29 26 24 22 22 23 24 23 22
27 28 25 26 30 31 34 41 46 47 47 46 44 41 40 36 30 24 21 20 20 20 20 20 24 29 28 27 27 26 33 32 28
28 24 27 30 34 40 46 49 50 49 47 45 44 42 39 35 29 24 22 20 18 15 19 29 34 36 30 36 33 32 29 31 31
25 29 35 42 46 48 50 51 50 48 45 44 42 39 34 28 24 22 20 18 16 20 27 30 33 36 34 46 54 44 30 26 23
36 41 42 44 48 50 50 47 46 43 43 41 35 29 24 21 20 18 17 18 22 26 26 27 31 35 38 47 57 58 51 27 29
39 43 46 48 49 49 47 45 42 40 39 36 32 29 25 23 22 21 22 23 24 25 27 25 24 23 30 42 46 47 38 38 35
47 48 49 49 49 48 46 43 40 37 32 32 31 30 27 25 24 24 25 26 27 28 23 20 20 20 33 68 61 52 38 60 42
48 49 49 49 48 47 44 42 41 34 32 32 31 30 29 28 27 28 28 28 26 23 23 22 21 18 16 18 52 87 60 81 70
48 48 49 49 47 45 43 42 42 34 34 34 32 32 31 30 29 29 29 27 26 25 24 21 18 17 15 19 74 67 59 84 63
48 48 48 47 46 44 43 43 44 39 35 37 37 34 32 32 32 30 29 28 27 25 24 23 22 20 16 17 67 69 59 87 67
48 48 46 44 43 43 44 45 43 44 36 38 41 40 35 32 34 32 31 29 30 30 30 29 27 24 20 16 16 32 21 31 43
49 47 44 44 44 45 47 48 47 45 43 38 40 46 36 33 34 34 33 33 35 34 33 32 31 30 27 23 18 17 19 19 21
57 54 57 52 52 54 54 52 49 46 46 40 41 47 39 35 36 36 37 37 40 41 42 38 33 31 31 30 26 22 18 16 21
70 81 75 68 66 70 67 59 55 51 48 48 46 48 42 38 39 42 46 51 59 60 58 50 40 34 30 28 28 27 24 20 22
86 95 98 93 87 92 88 80 67 63 60 55 60 52 42 41 44 52 57 58 58 58 59 57 47 37 32 28 26 27 26 25 26
97 100 100 97 100 99 99 99 94 89 84 83 68 54 45 43 47 47 58 65 61 63 64 58 49 35 30 29 27 26 26 27 28
98 98 99 99 100 100 98 100 90 99 99 98 98 95 65 58 54 57 68 71 72 67 62 56 51 40 28 28 29 30 30 32 31

GFSFLT1_700_rhum_087.txt.gz
RH
66 76 54 14 17 20 21 19 18 20 24 28 29 31 32 32 32 31 28 24 21 21 21 21 20 19 19 18 19 21 22 24 28
78 72 20 18 22 22 20 20 22 26 29 30 32 32 32 31 29 27 25 22 21 23 25 26 26 24 22 20 20 19 19 21 23
65 44 16 23 24 22 21 22 27 31 31 32 33 32 30 27 25 22 22 21 23 26 28 29 28 24 21 20 20 21 22 23 23
41 15 22 25 24 22 25 29 33 36 38 37 36 35 32 30 26 22 21 21 21 22 22 21 23 25 26 26 25 22 24 27 25
15 23 26 25 23 25 29 34 40 42 43 44 42 39 37 34 28 23 20 18 17 15 14 20 30 33 30 32 35 31 27 25 23
23 28 28 25 28 31 32 39 45 48 46 45 43 40 37 33 27 22 21 18 14 13 22 27 29 33 34 35 42 44 34 24 18
27 30 26 30 32 36 43 48 50 49 46 42 40 37 34 30 25 19 18 16 14 20 25 26 27 29 31 30 36 46 45 36 23
28 27 29 32 40 47 50 51 48 46 43 40 36 32 27 23 20 18 17 17 22 24 24 26 23 20 18 21 25 34 40 34 31
28 28 33 42 46 48 50 49 48 45 42 38 33 29 26 24 22 21 22 23 25 26 27 24 21 20 20 23 26 25 38 36 60
28 36 42 45 48 50 49 49 45 42 39 34 32 30 28 27 25 25 27 28 27 26 24 23 23 22 37 18 18 28 64 59 47
39 42 46 49 50 50 49 48 44 41 38 34 33 32 31 29 28 29 28 28 27 25 24 23 22 20 18 17 65 92 87 82 66
45 47 49 50 50 50 49 47 44 42 40 34 34 34 34 32 30 29 28 26 26 25 25 24 23 23 21 19 36 70 76 62 59
46 48 49 49 50 49 48 46 43 42 43 38 36 38 37 36 30 28 29 28 27 27 27 28 28 28 26 23 30 38 37 44 44
46 48 48 49 49 49 47 45 44 44 44 45 37 39 41 41 33 30 31 30 31 31 31 32 31 30 30 29 25 50 31 32 21
47 48 48 49 49 47 44 44 46 48 48 46 45 38 41 44 38 32 33 34 34 34 33 34 38 39 35 31 30 29 26 29 27
51 50 53 50 49 45 45 47 50 51 54 51 47 46 43 44 46 35 36 36 37 38 45 56 58 55 49 40 33 30 29 30 28
52 54 54 52 59 52 56 58 57 58 60 55 53 53 54 48 48 39 38 39 46 51 57 58 58 58 55 48 39 33 29 27 27
69 70 71 70 61 72 82 84 80 74 71 66 73 69 65 79 50 42 43 52 59 58 63 63 64 62 60 53 44 32 29 28 25
82 78 82 90 90 88 99 89 100 97 90 87 84 93 81 89 67 50 57 65 68 68 76 79 71 64 58 52 46 30 28 28 28
97 98 92 90 87 88 94 100 98 100 98 97 95 98 100 98 90 64 66 55 71 76 74 83 73 61 57 50 40 28 25 26 29

GFSFLT1_700_rhum_090.txt.gz
RH
68 90 86 60 23 15 18 18 17 16 19 22 25 26 27 30 28 25 22 20 20 20 20 20 20 17 16 15 15 14 16 17 19
63 65 73 42 15 20 20 18 17 19 23 28 29 29 28 28 26 25 22 20 21 24 25 25 22 19 16 17 16 16 17 18 18
58 66 62 18 18 22 20 19 20 23 27 30 32 31 28 25 21 21 20 20 23 25 25 24 22 21 23 25 23 19 20 22 21
74 69 41 16 23 23 21 24 28 29 30 33 34 33 30 28 21 20 19 20 20 20 17 17 24 30 28 30 33 28 25 21 21
73 59 16 23 24 23 25 30 33 35 37 38 39 37 33 30 23 19 18 17 15 13 15 26 30 32 33 32 32 35 34 25 19
58 23 19 25 24 24 29 33 39 43 44 43 41 38 34 31 24 22 18 17 14 13 23 26 26 27 28 26 24 30 35 29 23
20 17 25 27 25 27 32 37 44 47 47 44 42 37 35 30 21 20 18 17 15 20 24 24 24 20 17 18 21 22 28 31 19
14 23 27 26 26 32 36 43 48 49 47 44 42 35 30 23 19 19 18 17 20 23 24 26 22 19 19 19 20 21 19 25 24
19 26 29 26 30 34 46 50 50 47 46 42 40 35 30 26 22 23 23 23 24 25 26 23 22 21 21 20 17 17 23 58 55
24 31 28 28 33 44 49 50 49 50 46 42 39 34 32 30 26 26 26 26 26 26 24 22 23 22 20 18 19 48 70 76 60
29 33 27 32 42 47 49 51 51 49 44 43 39 34 33 33 29 27 28 26 26 25 24 24 23 22 22 22 52 77 83 83 84
31 29 28 38 45 50 51 51 50 49 46 42 39 35 34 35 34 30 26 27 27 26 26 26 26 27 27 26 24 53 74 75 66
33 30 38 46 49 51 51 51 50 49 45 43 43 37 36 38 37 32 29 29 28 28 30 30 30 29 29 28 29 31 46 38 36
33 36 44 48 50 50 50 50 50 48 45 44 44 44 38 38 43 42 33 32 31 32 34 33 32 32 39 47 46 38 33 32 30
37 42 46 48 49 49 50 50 49 47 46 46 47 46 45 42 40 45 45 32 33 34 36 35 38 50 55 55 52 49 41 33 30
42 45 46 48 48 49 51 49 47 44 48 50 51 51 49 48 46 46 48 38 35 37 38 44 51 54 55 58 57 56 53 44 38
51 49 51 51 50 51 51 50 50 52 59 64 61 59 59 56 52 52 51 43 39 40 47 53 59 65 68 67 63 59 54 46 34
56 56 65 63 52 52 53 56 61 59 63 80 80 75 70 74 70 79 61 46 46 49 56 64 70 74 77 74 69 57 53 48 36
65 68 72 63 65 68 67 79 81 84 72 91 94 97 96 92 89 84 73 52 54 62 67 62 64 78 81 73 61 52 43 40 32
91 94 89 87 82 96 86 90 94 99 98 99 99 98 99 100 99 91 93 74 70 74 60 81 86 87 76 60 53 40 30 27 28

GFSFLT1_700_rhum_093.txt.gz
RH
71 74 86 85 77 37 14 17 17 15 16 16 17 21 22 26 26 22 19 18 18 20 21 21 18 16 15 15 14 13 14 14 15
63 71 83 87 53 22 16 18 16 16 20 23 23 24 25 29 25 23 20 19 23 25 25 23 20 18 20 23 20 16 17 17 16
61 61 81 70 36 16 20 19 18 20 24 27 27 27 24 26 22 21 20 21 23 25 23 19 19 24 26 29 27 23 21 17 16
62 58 58 58 20 19 21 19 20 24 28 29 29 28 26 21 22 19 19 21 21 20 15 18 28 30 30 31 27 29 28 23 21
63 62 68 45 18 22 22 22 25 28 32 33 34 33 31 23 24 19 18 18 16 14 16 25 26 27 28 24 20 21 27 26 22
72 72 66 29 23 24 22 24 30 34 37 40 38 37 36 28 24 18 18 17 16 12 21 24 24 22 17 16 18 19 21 28 20
79 65 53 18 25 24 25 28 33 40 43 43 40 38 33 29 29 20 17 16 14 17 23 23 24 19 18 18 18 18 18 16 19
90 60 30 20 26 25 27 30 36 44 48 47 42 37 34 22 22 19 18 17 16 21 23 24 21 20 20 20 19 17 16 31 39
92 38 17 25 26 26 31 36 42 47 49 46 43 39 36 27 25 22 21 21 22 23 24 23 21 21 20 19 18 18 30 40 33
58 20 21 30 29 28 33 41 48 48 49 49 44 41 38 30 27 27 24 23 24 24 24 23 23 22 22 22 24 33 54 52 50
32 20 27 31 30 32 34 47 50 52 51 48 45 40 36 33 30 28 27 25 25 24 25 24 24 25 27 27 26 27 33 29 31
28 23 31 33 29 32 40 50 52 52 51 51 47 42 39 37 33 30 29 26 26 27 26 27 30 30 30 29 28 31 35 37 35
94 27 31 34 29 32 47 52 52 52 52 49 46 43 43 39 39 37 33 30 28 29 29 33 33 32 31 39 50 50 46 43 40
63 51 34 36 34 42 49 51 52 52 51 49 47 44 45 46 41 41 41 40 32 32 32 34 36 35 42 52 53 54 54 52 48
50 43 36 39 39 45 50 51 51 51 51 49 46 47 48 48 47 46 42 42 40 35 34 35 37 39 49 54 55 61 62 59 55
35 33 39 39 40 46 50 50 50 50 50 47 48 52 51 52 52 50 49 46 42 44 37 36 39 43 49 60 66 67 66 63 56
41 40 42 42 44 47 49 49 50 53 54 51 53 55 60 58 63 60 56 50 53 49 41 39 40 45 54 64 65 67 64 63 54
82 55 46 47 47 48 49 50 58 63 61 56 67 65 61 70 79 68 70 66 65 55 44 45 48 56 55 57 64 72 69 59 41
92 90 83 50 53 52 57 58 58 56 67 72 72 78 85 98 96 95 90 98 80 66 50 46 54 55 60 69 77 70 57 44 34
97 98 99 94 82 81 77 74 73 95 87 92 96 96 86 97 100 97 96 96 95 87 57 57 55 62 63 75 68 66 57 48 41

GFSFLT1_700_rhum_096.txt.gz
RH
65 68 68 84 80 71 36 15 16 14 14 15 16 21 23 22 23 20 18 16 16 17 18 16 15 14 17 18 15 14 14 14 14
63 68 72 83 83 69 26 16 18 16 16 17 19 22 24 24 24 21 19 18 21 22 21 17 16 19 24 25 21 19 17 14 14
76 68 68 71 85 50 20 19 18 17 19 21 22 27 26 24 24 22 20 20 23 23 19 15 18 24 26 26 21 20 20 17 15
86 73 73 77 74 35 19 21 19 19 23 26 25 25 26 23 20 20 20 21 20 18 13 17 25 26 27 22 16 17 20 17 13
88 72 74 73 63 26 22 22 22 23 26 28 30 26 26 25 20 19 20 19 18 14 12 22 23 24 20 16 16 17 17 19 16
94 69 72 70 49 21 24 23 24 29 30 32 32 31 29 28 24 21 18 18 16 12 14 22 22 20 17 18 18 17 16 15 18
93 71 70 74 37 23 25 24 26 30 34 35 35 34 31 30 25 21 17 17 14 12 19 21 22 19 19 19 20 17 16 18 22
96 79 79 72 34 24 26 26 28 32 39 43 41 37 33 29 25 24 18 15 14 16 20 22 21 20 20 19 18 18 20 27 28
94 93 87 68 28 25 26 30 34 37 42 46 46 42 36 32 29 22 21 19 18 20 23 23 21 20 20 20 22 25 37 37 34
91 89 97 66 25 27 27 31 34 40 47 50 46 45 41 32 32 29 26 24 22 25 25 23 23 22 23 26 27 26 26 31 34
100 97 99 38 29 30 30 33 35 43 51 52 50 48 43 36 35 32 28 26 26 26 25 25 25 27 29 29 28 28 39 44 43
100 100 73 30 38 36 35 35 37 48 52 51 51 47 43 39 35 34 31 29 28 27 28 27 29 32 32 30 31 46 48 48 48
97 97 86 74 42 35 36 37 40 51 53 54 52 50 46 41 38 36 35 34 30 29 30 29 33 35 34 35 43 50 50 52 53
47 85 68 37 44 38 36 39 44 52 54 53 53 50 46 44 45 40 36 37 39 37 32 32 34 36 38 42 47 49 54 59 59
42 23 68 65 38 42 38 41 46 52 53 53 52 50 47 45 46 48 47 47 41 38 41 37 34 36 39 43 47 53 58 61 61
86 38 20 94 47 41 38 40 46 51 53 52 51 50 47 48 56 58 52 50 47 46 45 42 40 37 38 44 48 55 59 57 57
83 48 24 54 71 41 43 43 47 51 52 51 51 50 51 53 54 58 62 64 52 52 51 49 46 42 42 45 52 55 55 56 69
82 47 32 52 50 40 43 44 47 50 51 52 55 57 56 59 61 61 74 74 65 63 66 60 52 47 44 50 52 54 62 73 68
98 64 44 42 41 43 44 46 50 53 55 60 70 67 62 69 64 82 83 86 90 88 88 78 66 53 50 57 56 63 70 68 59
97 99 94 73 57 60 60 54 58 60 63 74 78 88 92 97 90 97 84 88 94 99 92 99 92 69 58 67 63 73 75 60 59

GFSFLT1_700_rhum_099.txt.gz
RH
51 68 65 63 82 69 70 57 16 15 13 13 15 17 18 18 20 18 17 16 16 16 15 14 12 16 20 19 16 16 13 12 10
44 59 67 75 86 76 68 47 16 16 14 14 18 22 22 24 23 20 18 18 20 20 18 15 14 19 24 21 17 15 14 13 12
60 61 73 77 82 81 67 35 16 16 16 16 19 20 23 24 24 22 19 19 21 22 18 13 17 23 24 21 14 14 15 14 12
67 76 73 78 79 75 56 28 18 18 17 19 20 21 22 21 21 20 20 20 20 19 14 14 21 22 22 16 14 14 14 15 13
82 81 78 76 78 77 48 23 20 20 19 22 24 25 24 22 21 19 19 19 19 16 11 18 21 21 16 15 16 16 15 14 15
78 90 79 78 78 74 45 22 22 22 22 22 25 27 29 25 23 21 18 17 16 14 11 17 21 21 17 18 17 16 16 16 20
84 90 85 75 69 64 38 22 24 24 25 26 24 28 32 31 28 23 19 17 15 13 13 20 22 20 19 19 18 17 18 25 26
96 97 92 75 69 62 38 23 24 25 29 32 33 34 35 33 29 25 20 17 15 13 17 21 23 21 20 20 19 21 28 35 34
99 100 93 76 83 64 30 24 26 28 30 32 38 41 39 37 32 27 22 18 16 16 19 23 23 22 22 22 25 27 29 30 34
94 98 98 89 89 58 33 27 27 30 33 38 44 45 44 41 38 32 28 24 22 21 23 24 24 23 23 27 28 27 28 41 43
89 97 99 99 100 62 31 31 32 33 36 44 50 50 46 43 39 34 28 24 24 25 25 24 25 26 29 31 30 28 39 44 45
87 97 99 99 100 48 34 35 38 35 37 46 53 53 52 47 42 37 33 28 28 26 25 28 26 30 33 33 31 36 44 47 48
73 90 98 99 97 72 38 42 42 38 37 50 54 55 54 50 44 40 36 34 32 29 28 30 29 32 36 36 36 41 45 47 49
72 63 84 100 100 86 46 43 45 44 41 50 55 55 54 51 46 43 40 38 38 38 38 33 32 33 35 37 39 42 46 49 50
86 81 71 83 98 79 54 57 45 47 46 52 55 55 54 52 48 45 45 46 45 44 41 39 39 37 36 36 38 41 43 50 53
96 93 93 84 88 92 80 58 52 50 49 54 54 54 53 52 49 48 49 51 52 51 54 53 48 44 42 40 39 39 43 47 52
91 94 85 81 90 94 69 49 52 47 50 52 53 54 53 52 50 48 53 54 54 53 56 59 55 52 48 46 43 42 42 46 51
96 89 92 90 91 72 66 52 49 44 46 50 53 53 52 51 52 56 62 59 56 58 68 69 68 66 59 53 49 47 46 49 55
100 98 99 98 98 61 36 91 45 46 48 52 52 52 52 53 58 63 68 77 69 68 70 77 87 88 81 78 64 56 54 60 66
99 99 100 98 95 72 42 81 53 50 54 52 53 54 55 57 63 71 63 88 77 89 86 95 93 93 98 100 86 70 67 64 73

GFSFLT1_700_rhum_102.txt.gz
RH
36 42 59 63 76 81 70 74 53 16 14 12 13 13 15 16 17 16 15 14 13 14 13 12 13 18 20 16 15 14 12 11 10
41 43 56 66 67 75 74 70 50 17 15 14 14 16 17 18 20 19 17 16 17 16 15 13 13 18 22 19 15 14 14 12 10
47 62 61 69 72 76 76 71 47 18 16 15 16 18 20 21 21 20 18 18 19 19 16 12 15 19 21 17 14 13 14 13 12
52 67 67 74 77 79 75 68 42 19 17 18 18 20 21 21 20 20 19 19 19 18 15 11 17 20 19 14 15 15 15 15 15
69 64 82 79 88 86 70 73 53 21 19 18 21 21 21 22 21 20 19 19 18 17 13 12 18 19 17 16 16 16 16 16 19
60 58 88 84 85 86 78 68 52 25 20 20 22 24 24 23 22 21 19 18 17 16 12 11 17 19 17 17 18 17 17 21 24
64 62 89 89 83 84 76 62 44 25 19 21 26 28 29 28 26 23 20 17 16 15 13 13 19 20 18 18 18 18 21 34 33
64 71 75 94 86 82 69 56 38 24 21 21 26 31 35 35 31 27 22 18 16 14 13 16 19 21 19 19 20 23 28 33 30
77 86 97 98 94 83 77 56 34 25 24 23 25 32 37 39 36 31 25 20 17 15 15 19 22 22 21 21 23 28 27 30 40
71 87 83 89 95 82 85 50 33 26 25 26 28 34 41 40 40 36 32 27 24 22 21 23 24 22 22 23 29 29 28 37 43
76 71 84 94 94 89 91 43 32 32 29 27 32 38 43 45 43 40 36 30 26 23 26 26 25 24 24 30 32 31 31 40 44
79 76 79 88 96 96 93 77 35 36 34 35 34 40 46 48 48 44 39 33 30 28 27 27 27 27 28 35 35 34 36 41 44
67 59 66 83 95 87 100 89 41 35 39 40 41 45 53 52 51 48 42 37 34 31 31 29 30 30 31 34 37 38 40 42 44
69 68 67 77 88 91 96 98 75 42 45 47 47 49 55 56 54 52 46 42 37 36 38 37 34 32 33 34 36 38 40 41 42
64 74 74 85 90 94 100 99 100 78 53 56 53 55 57 57 55 53 49 45 44 43 41 40 42 42 41 38 37 37 41 40 40
78 86 93 95 94 88 81 99 100 96 83 67 60 55 55 56 55 54 51 48 46 49 49 48 50 53 52 48 44 42 42 44 42
84 88 91 98 97 98 94 91 98 96 80 70 64 60 55 56 54 54 52 49 48 52 53 53 54 57 59 56 53 50 47 47 47
92 82 100 97 99 98 99 100 99 100 99 87 60 62 50 59 54 53 53 51 52 57 57 58 60 62 66 67 71 66 56 55 54
93 87 98 100 99 99 99 100 98 98 88 66 56 58 56 53 52 54 53 53 56 58 62 72 68 74 79 90 88 91 83 90 82
89 91 76 96 98 99 99 100 97 97 99 66 57 58 54 54 55 53 53 56 64 74 73 68 63 82 83 91 85 86 100 99 98

GFSFLT1_700_rhum_105.txt.gz
RH
39 46 54 60 68 77 75 75 69 43 15 12 12 12 14 15 16 15 13 12 12 13 12 12 13 19 19 14 14 13 12 10 10
67 40 55 64 67 72 65 71 73 53 19 13 13 14 15 17 18 18 16 15 16 17 15 12 13 17 19 16 13 13 12 12 11
60 58 64 63 70 73 72 73 70 57 30 14 14 16 17 18 19 20 18 17 18 19 17 12 14 19 20 15 13 13 14 14 13
55 57 73 71 72 78 80 74 67 50 32 15 14 17 19 20 20 20 19 18 18 19 16 12 15 18 18 14 15 15 15 15 16
57 64 65 81 84 82 83 78 65 42 31 18 15 16 21 21 20 19 18 18 17 18 15 11 16 18 17 15 16 16 15 16 19
21 66 69 86 90 90 86 77 65 42 28 20 18 18 19 22 21 20 19 18 17 16 15 11 13 17 18 17 17 17 17 22 26
35 36 62 65 89 86 80 77 66 49 32 22 21 22 21 22 24 24 22 19 17 15 14 12 14 20 20 19 18 18 21 32 32
47 43 55 64 88 87 85 80 70 54 33 24 25 27 27 24 24 25 24 21 17 15 14 12 16 21 21 20 20 22 27 30 29
57 63 68 72 70 90 93 88 73 52 39 25 25 28 32 33 29 26 24 21 18 16 15 15 18 22 22 22 22 27 28 28 37
79 82 80 87 97 96 98 94 80 58 38 28 26 29 35 40 38 34 29 26 23 21 20 20 22 24 23 23 26 30 29 30 40
92 88 88 92 98 99 100 94 91 66 35 31 27 28 34 39 42 43 39 33 28 25 23 22 24 24 24 25 30 32 31 34 41
72 83 83 76 74 87 95 99 99 84 46 34 31 33 38 42 45 47 46 40 33 30 26 26 26 26 26 27 34 35 34 38 42
73 70 64 62 68 73 81 77 99 89 72 37 35 36 37 43 50 51 49 44 39 35 33 32 29 28 29 29 34 37 38 40 42
68 66 64 67 64 61 67 72 92 93 99 58 46 45 44 46 55 54 52 50 45 41 37 37 36 34 33 33 34 35 36 39 41
54 70 72 65 67 66 68 77 83 91 99 95 62 53 49 51 56 57 55 53 50 46 43 41 39 40 41 42 41 39 38 38 39
72 74 63 76 80 76 83 85 92 95 98 100 99 88 64 61 54 58 56 54 53 50 46 46 46 46 48 50 53 52 48 46 44
71 74 64 77 79 86 84 89 93 89 86 98 100 97 74 65 62 59 57 59 56 53 50 50 53 55 57 58 60 61 60 56 54
59 63 66 73 78 78 94 98 100 97 96 98 99 99 96 72 66 60 56 57 58 59 57 55 57 59 66 73 74 78 82 84 81
68 64 67 70 78 83 85 98 97 100 98 99 97 99 98 95 76 58 52 55 59 60 56 56 62 68 77 63 68 81 85 87 87
74 72 81 83 85 94 96 94 98 100 100 100 100 100 100 99 92 53 47 55 55 55 56 58 74 75 73 71 77 81 88 90 81

GFSFLT1_700_rhum_108.txt.gz
RH
44 49 47 58 80 88 74 66 66 56 39 13 11 11 13 16 17 15 14 13 13 14 13 12 16 20 18 14 12 12 11 10 10
71 63 51 63 69 83 74 65 65 56 38 18 12 12 14 17 18 18 16 15 15 17 15 13 14 18 20 15 12 12 12 12 11
60 69 54 62 65 81 73 68 66 58 38 21 15 13 14 16 19 21 19 17 18 19 17 13 14 18 20 16 13 14 14 14 14
42 57 62 72 67 76 81 75 65 60 40 23 18 16 16 16 18 20 20 19 18 19 18 14 14 18 18 15 15 15 15 15 16
35 53 63 66 81 76 84 81 70 61 43 28 20 19 20 20 19 18 18 20 19 19 18 14 14 17 18 16 16 17 16 17 20
22 35 68 69 81 87 88 85 79 61 44 35 23 20 23 24 22 20 18 17 18 18 18 14 12 16 19 18 18 18 17 22 27
49 43 48 75 74 91 89 82 80 68 48 38 26 22 22 25 26 24 22 19 17 16 16 15 12 16 20 19 19 18 19 30 34
57 52 60 53 66 71 90 84 83 76 58 37 29 25 23 23 24 28 27 23 19 16 14 14 13 15 20 20 20 20 24 33 31
62 53 60 63 74 71 94 92 88 90 64 43 31 26 26 26 26 27 29 28 24 19 16 15 14 17 21 22 21 22 27 29 31
70 65 70 71 80 80 86 97 97 95 82 50 35 28 28 29 31 31 31 31 30 28 23 20 18 19 22 23 22 24 30 29 32
96 84 75 77 87 96 96 95 96 94 96 69 37 32 30 31 34 38 36 34 32 31 30 26 25 24 25 25 24 28 32 31 32
84 88 90 90 85 92 96 96 93 89 100 89 44 36 34 34 35 38 44 42 37 32 31 30 27 28 29 31 27 30 34 34 36
85 80 77 76 76 79 80 78 86 90 97 95 76 42 42 41 39 39 44 46 47 41 36 34 33 31 30 30 30 32 46 38 38
90 68 67 68 65 66 66 66 71 70 84 95 92 91 53 44 43 41 47 52 52 49 46 40 37 36 34 32 33 34 37 36 37
79 66 53 53 66 63 63 67 69 71 69 72 100 99 96 83 48 45 44 53 54 53 52 47 43 40 42 40 41 42 40 39 39
86 62 56 58 66 60 59 64 69 76 74 88 92 93 98 94 62 69 44 54 57 57 56 53 48 46 44 44 45 46 51 54 52
80 76 73 83 70 57 56 70 73 81 82 83 90 93 90 90 94 92 51 60 62 68 60 57 53 49 48 50 53 58 62 65 64
76 74 80 68 75 55 68 77 73 86 86 90 97 95 82 84 90 90 95 88 70 64 69 60 57 55 54 57 62 72 72 69 75
83 79 75 75 72 57 62 79 79 90 95 92 89 99 99 96 98 100 98 91 82 67 60 60 60 59 62 64 67 72 73 69 79
78 79 72 71 67 59 65 76 85 87 90 94 100 100 99 100 99 98 97 99 76 72 66 63 65 63 63 66 72 89 83 100 99

GFSFLT1_700_rhum_111.txt.gz
RH
47 46 45 48 70 89 88 64 62 59 46 20 12 12 13 15 16 15 14 13 13 13 12 12 17 20 18 15 14 13 12 11 10
64 66 47 52 73 84 92 66 60 61 53 31 14 14 16 16 17 17 15 15 15 16 16 14 14 18 20 16 13 13 13 13 12
56 70 64 56 78 83 97 77 61 62 58 42 18 14 16 20 20 20 18 16 16 18 19 15 13 16 18 18 14 14 14 14 14
50 53 67 65 60 72 86 88 67 63 61 48 31 17 16 18 21 21 21 20 17 18 18 16 13 15 18 16 14 15 15 14 16
57 56 57 64 69 78 78 90 81 65 62 48 39 23 17 18 19 21 20 20 20 19 19 17 13 14 17 17 15 16 15 15 18
31 36 52 60 68 76 83 88 89 75 65 52 42 30 19 18 20 20 21 20 19 18 18 17 15 12 16 18 17 17 17 16 22
56 36 25 37 68 71 85 90 93 85 72 57 45 35 24 20 19 18 21 21 20 18 17 17 16 13 15 19 19 18 18 20 29
66 59 46 55 50 69 78 91 92 90 80 65 47 37 28 22 21 19 22 22 22 20 18 16 16 14 15 20 20 20 19 23 33
75 72 60 64 68 60 68 76 94 96 96 74 54 40 33 26 23 22 25 24 24 22 19 16 15 15 16 21 22 21 22 28 32
78 76 69 62 67 73 74 78 85 98 98 100 80 42 35 32 28 26 26 27 26 25 23 20 17 16 17 21 24 23 23 28 30
86 84 81 82 81 79 82 80 80 88 93 99 99 62 38 34 32 30 30 31 33 31 27 25 24 22 20 22 25 24 25 30 31
93 92 94 93 90 87 88 90 91 84 91 96 98 91 47 39 35 31 30 32 36 37 34 30 27 26 34 30 35 37 27 38 45
87 92 98 98 98 96 96 92 96 97 92 88 100 99 88 62 40 38 36 34 31 35 41 39 35 31 28 29 30 33 33 38 57
100 92 94 90 85 89 82 82 82 82 84 81 87 82 90 90 85 44 59 40 37 32 35 44 41 36 33 34 32 32 40 46 45
100 99 96 97 91 75 72 71 70 69 72 69 70 71 71 87 89 90 83 51 72 38 43 44 45 44 40 38 39 39 40 44 44
77 81 94 99 88 71 80 78 74 71 66 68 75 81 83 71 84 98 90 93 86 46 47 51 50 49 48 45 43 43 44 46 50
69 73 70 88 90 74 64 79 73 60 74 71 76 86 83 84 78 95 90 88 78 60 51 48 53 51 54 54 51 49 50 51 58
69 58 57 71 74 51 71 52 71 71 79 76 83 89 80 85 86 85 86 81 89 91 84 55 58 52 57 63 56 52 54 61 71
62 74 85 85 87 85 85 81 65 72 81 86 86 88 98 97 92 94 84 86 82 90 91 65 59 65 61 59 57 55 63 68 80
86 85 88 90 88 81 79 79 68 68 83 91 91 85 84 90 97 98 98 92 88 87 96 97 96 72 62 64 65 64 65 68 83

GFSFLT1_700_rhum_114.txt.gz
RH
50 42 43 39 54 86 92 68 61 56 53 42 13 11 12 14 14 16 13 12 11 12 12 12 15 19 18 14 13 12 11 11 11
64 55 46 42 56 87 96 76 60 58 54 48 28 13 13 15 17 15 15 14 13 13 14 14 13 16 19 18 13 12 12 12 12
63 66 70 52 58 82 91 97 71 58 57 51 40 19 13 14 15 16 19 17 16 16 16 16 13 13 16 18 15 13 13 13 14
54 52 59 69 59 74 83 89 93 65 58 54 45 31 16 14 15 16 19 19 18 19 20 18 15 13 15 16 15 14 15 15 15
56 54 57 63 68 65 73 74 93 81 61 60 49 40 25 16 15 13 17 18 19 19 19 19 16 14 14 16 16 15 15 15 16
64 54 53 55 60 68 76 80 84 89 74 68 57 45 34 22 18 15 16 16 17 18 18 18 17 15 13 14 16 16 17 16 18
66 59 39 30 44 58 68 79 86 88 83 76 66 50 40 29 21 17 18 17 18 17 17 17 17 16 14 12 16 17 17 17 20
67 65 60 46 30 30 59 73 82 91 91 84 75 58 46 40 28 20 21 20 20 20 18 17 16 15 15 13 15 19 19 18 21
73 74 71 68 58 52 50 62 74 87 96 89 87 72 52 45 37 27 23 23 22 21 21 19 17 15 14 14 16 20 20 20 22
81 81 81 71 68 61 68 61 68 77 80 96 94 92 76 53 40 38 26 24 26 25 25 23 21 18 16 14 16 21 23 22 25
89 92 89 86 76 76 71 77 77 82 87 87 99 98 100 78 64 44 37 27 26 27 27 26 26 24 21 18 17 20 24 24 25
88 87 96 84 89 88 85 86 88 86 84 84 84 95 92 99 89 55 47 36 29 26 28 30 30 29 27 31 35 31 32 28 27
94 84 97 97 90 87 95 98 97 97 99 96 98 87 96 99 98 97 78 55 39 34 33 34 35 33 33 30 26 27 39 45 39
90 87 84 88 83 88 98 98 99 97 98 97 99 98 91 87 90 87 91 89 84 42 36 38 34 38 39 36 33 29 29 33 36
84 82 91 74 78 95 81 95 97 97 97 97 94 90 83 77 77 75 87 100 98 60 66 46 59 43 44 45 41 38 35 33 37
99 90 80 87 89 98 99 97 92 87 96 94 88 80 75 78 82 84 81 77 89 95 83 66 84 55 50 50 51 47 43 42 45
100 90 91 90 81 92 82 82 94 78 77 92 79 75 68 76 80 84 78 80 80 96 97 84 86 67 55 50 54 53 49 45 45
68 99 92 73 69 49 82 88 82 78 82 86 85 78 69 71 80 88 88 87 89 87 93 96 87 87 78 52 56 54 59 58 53
85 100 84 74 69 54 76 88 84 92 78 83 83 75 73 90 95 87 82 83 83 90 88 87 89 92 87 86 62 59 56 58 59
92 99 77 70 55 53 66 77 82 84 86 85 92 79 85 88 96 82 76 83 72 86 85 94 94 96 97 93 74 65 64 68 62

GFSFLT1_700_rhum_117.txt.gz
RH
59 44 41 36 45 68 86 69 61 55 51 46 34 12 10 13 13 13 12 11 11 11 11 12 14 18 18 14 13 12 12 11 11
62 64 48 42 43 64 91 89 65 58 55 48 42 27 11 11 13 15 15 13 12 12 13 12 12 13 17 18 15 12 12 12 12
59 61 63 62 44 59 87 97 85 63 59 56 46 40 19 12 11 14 15 15 14 13 14 15 14 12 13 15 16 14 13 13 14
61 60 56 61 67 55 76 84 94 87 63 61 52 45 37 16 13 14 14 15 17 16 16 17 16 14 13 14 15 14 14 14 14
63 60 57 53 58 66 64 77 78 94 80 64 62 49 43 32 16 13 15 15 16 17 18 18 18 16 14 13 14 14 14 15 15
68 66 62 59 56 58 64 65 70 79 89 76 67 59 48 44 27 16 15 15 15 16 17 17 18 18 16 14 14 16 16 16 16
75 70 67 64 48 47 56 62 68 77 82 85 74 68 56 51 41 26 17 15 16 16 17 17 16 16 16 15 13 16 18 18 18
77 74 72 68 62 44 31 46 62 76 84 88 88 80 68 60 54 41 24 18 17 17 17 18 17 16 15 15 14 14 18 19 19
79 76 73 73 72 67 58 37 36 67 78 86 91 91 82 70 65 57 38 24 20 19 19 20 20 19 17 15 14 14 17 19 20
57 66 67 72 78 79 77 69 57 55 69 76 87 96 93 88 78 74 56 39 28 22 21 22 22 22 20 18 15 14 15 20 21
74 68 63 77 86 88 88 81 70 68 68 72 74 74 95 99 96 87 77 63 44 30 25 24 25 25 24 23 20 18 16 18 21
51 59 78 91 91 88 88 90 86 82 79 78 82 86 86 91 90 98 88 82 55 39 32 30 30 31 31 28 26 28 34 24 25
53 63 76 92 88 73 79 93 95 91 98 96 90 89 92 91 94 99 92 90 88 70 50 35 32 32 34 36 35 31 27 29 44
53 63 78 78 87 80 82 82 90 84 92 99 100 100 99 99 99 95 91 94 89 80 71 60 40 34 41 36 41 41 36 31 31
38 63 80 80 82 85 90 87 84 84 100 100 98 100 100 99 100 98 94 87 80 80 90 90 89 42 54 43 58 48 47 41 36
33 45 71 81 82 85 96 88 80 88 82 83 97 97 96 96 98 96 85 78 82 79 76 82 89 72 59 48 57 58 54 52 46
50 45 56 74 80 88 93 100 99 96 99 97 96 98 96 92 90 88 82 79 89 87 84 81 76 85 86 69 62 67 60 60 56
57 59 68 70 80 81 97 99 93 77 77 83 84 90 86 86 88 89 81 86 84 82 86 84 83 92 94 91 95 93 79 65 63
45 60 92 98 99 93 98 95 72 81 78 86 83 86 94 91 91 91 84 81 94 87 85 87 89 92 88 85 85 88 96 68 70
46 54 91 100 100 100 98 98 73 63 80 82 78 88 96 100 98 100 98 95 91 82 76 72 80 88 92 90 88 84 90 87 90